| time (UTC) | temp F | wind direction | speed knots | gust knots | rain 1hr in | rain 24hr in | rain mn in | humidity % | barometer mb |
| 20260506213015 | 46 | 45 | 4.3 | 0.0 | 0.00 | 0.00 | 0.00 | 81 | 1057.6 |
| 20260506212909 | 46 | 22 | 4.3 | 0.0 | 0.00 | 0.00 | 0.00 | 81 | 1057.7 |
| 20260506212804 | 46 | 22 | 0.0 | 0.0 | 0.00 | 0.00 | 0.00 | 81 | 1057.6 |
| 20260506212651 | 47 | 22 | 3.5 | 0.0 | 0.00 | 0.00 | 0.00 | 81 | 1057.6 |
| 20260506212531 | 47 | 45 | 2.6 | 0.0 | 0.00 | 0.00 | 0.00 | 81 | 1057.5 |
| 20260506212427 | 47 | 22 | 5.2 | 0.0 | 0.00 | 0.00 | 0.00 | 81 | 1057.6 |
| 20260506212319 | 47 | 22 | 4.3 | 0.0 | 0.00 | 0.00 | 0.00 | 82 | 1057.6 |
| 20260506212207 | 47 | 0 | 4.3 | 0.0 | 0.00 | 0.00 | 0.00 | 82 | 1057.5 |
| 20260506212046 | 47 | 0 | 3.5 | 0.0 | 0.00 | 0.00 | 0.00 | 81 | 1057.5 |
| 20260506211932 | 47 | 0 | 5.2 | 0.0 | 0.00 | 0.00 | 0.00 | 81 | 1057.4 |
| 20260506211819 | 47 | 0 | 0.0 | 0.0 | 0.00 | 0.00 | 0.00 | 81 | 1057.4 |
| 20260506211715 | 47 | 22 | 4.3 | 0.0 | 0.00 | 0.00 | 0.00 | 81 | 1057.4 |
| 20260506211609 | 47 | 67 | 3.5 | 0.0 | 0.00 | 0.00 | 0.00 | 81 | 1057.4 |
| 20260506211447 | 47 | 45 | 1.7 | 0.0 | 0.00 | 0.00 | 0.00 | 81 | 1057.4 |
| 20260506211327 | 47 | 45 | 3.5 | 0.0 | 0.00 | 0.00 | 0.00 | 81 | 1057.4 |
| 20260506211212 | 47 | 0 | 5.2 | 0.0 | 0.00 | 0.00 | 0.00 | 81 | 1057.4 |
| 20260506211052 | 47 | 22 | 5.2 | 0.0 | 0.00 | 0.00 | 0.00 | 81 | 1057.4 |
| 20260506210939 | 47 | 0 | 6.1 | 0.0 | 0.00 | 0.00 | 0.00 | 81 | 1057.3 |
| 20260506210817 | 47 | 337 | 5.2 | 0.0 | 0.00 | 0.00 | 0.00 | 81 | 1057.3 |
| 20260506210656 | 47 | 22 | 1.7 | 0.0 | 0.00 | 0.00 | 0.00 | 81 | 1057.4 |
| 20260506210535 | 47 | 337 | 6.1 | 0.0 | 0.00 | 0.00 | 0.00 | 81 | 1057.4 |
| 20260506210413 | 47 | 0 | 3.5 | 0.0 | 0.00 | 0.00 | 0.00 | 80 | 1057.4 |
| 20260506210252 | 47 | 22 | 5.2 | 0.0 | 0.00 | 0.00 | 0.00 | 80 | 1057.4 |
| 20260506210131 | 47 | 22 | 6.1 | 0.0 | 0.00 | 0.00 | 0.00 | 80 | 1057.4 |
| 20260506210002 | 47 | 22 | 1.7 | 0.0 | 0.00 | 0.00 | 0.00 | 80 | 1057.3 |
| 20260506205851 | 47 | 22 | 4.3 | 0.0 | 0.00 | 0.00 | 0.00 | 80 | 1057.4 |
| 20260506205745 | 47 | 22 | 5.2 | 0.0 | 0.00 | 0.00 | 0.00 | 80 | 1057.3 |
| 20260506205641 | 47 | 22 | 4.3 | 0.0 | 0.00 | 0.00 | 0.00 | 80 | 1057.3 |
| 20260506205534 | 47 | 22 | 3.5 | 0.0 | 0.00 | 0.00 | 0.00 | 80 | 1057.3 |
| 20260506205423 | 47 | 0 | 5.2 | 0.0 | 0.00 | 0.00 | 0.00 | 80 | 1057.3 |
| 20260506205318 | 47 | 45 | 5.2 | 0.0 | 0.00 | 0.00 | 0.00 | 80 | 1057.3 |
| 20260506205155 | 47 | 22 | 5.2 | 0.0 | 0.00 | 0.00 | 0.00 | 80 | 1057.3 |
| 20260506205041 | 47 | 45 | 7.8 | 0.0 | 0.00 | 0.00 | 0.00 | 80 | 1057.3 |
| 20260506204921 | 47 | 22 | 3.5 | 0.0 | 0.00 | 0.00 | 0.00 | 80 | 1057.3 |
| 20260506204817 | 47 | 22 | 7.0 | 0.0 | 0.00 | 0.00 | 0.00 | 80 | 1057.3 |
| 20260506204706 | 47 | 22 | 7.0 | 0.0 | 0.00 | 0.00 | 0.00 | 80 | 1057.4 |
| 20260506204550 | 47 | 0 | 3.5 | 0.0 | 0.00 | 0.00 | 0.00 | 80 | 1057.3 |
| 20260506204444 | 47 | 0 | 7.8 | 0.0 | 0.00 | 0.00 | 0.00 | 80 | 1057.3 |
| 20260506204339 | 47 | 0 | 5.2 | 0.0 | 0.00 | 0.00 | 0.00 | 80 | 1057.3 |
| 20260506204218 | 47 | 22 | 5.2 | 0.0 | 0.00 | 0.00 | 0.00 | 80 | 1057.3 |
| 20260506204057 | 47 | 0 | 4.3 | 0.0 | 0.00 | 0.00 | 0.00 | 80 | 1057.3 |
| 20260506203952 | 47 | 22 | 7.8 | 0.0 | 0.00 | 0.00 | 0.00 | 80 | 1057.4 |
| 20260506203831 | 47 | 0 | 5.2 | 0.0 | 0.00 | 0.00 | 0.00 | 80 | 1057.4 |
| 20260506203719 | 47 | 22 | 8.7 | 0.0 | 0.00 | 0.00 | 0.00 | 80 | 1057.4 |
| 20260506203612 | 47 | 0 | 4.3 | 0.0 | 0.00 | 0.00 | 0.00 | 80 | 1057.4 |
| 20260506203459 | 47 | 45 | 3.5 | 0.0 | 0.00 | 0.00 | 0.00 | 80 | 1057.4 |
| 20260506203354 | 47 | 0 | 7.0 | 0.0 | 0.00 | 0.00 | 0.00 | 80 | 1057.4 |
| 20260506203232 | 47 | 0 | 6.1 | 0.0 | 0.00 | 0.00 | 0.00 | 80 | 1057.4 |
| 20260506203113 | 47 | 22 | 10.4 | 0.0 | 0.00 | 0.00 | 0.00 | 80 | 1057.4 |
| 20260506202942 | 47 | 22 | 9.6 | 0.0 | 0.00 | 0.00 | 0.00 | 81 | 1057.3 |
| 20260506202829 | 48 | 0 | 3.5 | 0.0 | 0.00 | 0.00 | 0.00 | 81 | 1057.3 |
| 20260506202708 | 47 | 0 | 7.0 | 0.0 | 0.00 | 0.00 | 0.00 | 81 | 1057.4 |
| 20260506202555 | 48 | 45 | 12.2 | 0.0 | 0.00 | 0.00 | 0.00 | 80 | 1057.3 |
| 20260506202441 | 48 | 0 | 7.8 | 0.0 | 0.00 | 0.00 | 0.00 | 80 | 1057.2 |
| 20260506202323 | 48 | 22 | 9.6 | 0.0 | 0.00 | 0.00 | 0.00 | 80 | 1057.3 |
| 20260506202215 | 48 | 22 | 1.7 | 0.0 | 0.00 | 0.00 | 0.00 | 80 | 1057.3 |
| 20260506202054 | 48 | 0 | 7.8 | 0.0 | 0.00 | 0.00 | 0.00 | 80 | 1057.2 |
| 20260506201932 | 48 | 337 | 8.7 | 0.0 | 0.00 | 0.00 | 0.00 | 81 | 1057.2 |
| 20260506201811 | 48 | 22 | 2.6 | 0.0 | 0.00 | 0.00 | 0.00 | 81 | 1057.2 |
| 20260506201650 | 48 | 45 | 6.1 | 0.0 | 0.00 | 0.00 | 0.00 | 81 | 1057.3 |
| 20260506201529 | 48 | 0 | 6.1 | 0.0 | 0.00 | 0.00 | 0.00 | 81 | 1057.3 |
| 20260506201424 | 48 | 45 | 3.5 | 0.0 | 0.00 | 0.00 | 0.00 | 81 | 1057.3 |
| 20260506201310 | 48 | 45 | 2.6 | 0.0 | 0.00 | 0.00 | 0.00 | 81 | 1057.3 |
| 20260506201151 | 48 | 0 | 3.5 | 0.0 | 0.00 | 0.00 | 0.00 | 81 | 1057.3 |
| 20260506201044 | 48 | 0 | 2.6 | 0.0 | 0.00 | 0.00 | 0.00 | 80 | 1057.3 |
| 20260506200923 | 48 | 22 | 6.1 | 0.0 | 0.00 | 0.00 | 0.00 | 80 | 1057.3 |
| 20260506200811 | 48 | 22 | 7.0 | 0.0 | 0.00 | 0.00 | 0.00 | 81 | 1057.3 |
| 20260506200658 | 48 | 22 | 3.5 | 0.0 | 0.00 | 0.00 | 0.00 | 81 | 1057.3 |
| 20260506200536 | 48 | 22 | 12.2 | 0.0 | 0.00 | 0.00 | 0.00 | 81 | 1057.3 |
| 20260506200415 | 48 | 22 | 5.2 | 0.0 | 0.00 | 0.00 | 0.00 | 81 | 1057.3 |
| 20260506200311 | 48 | 45 | 7.0 | 0.0 | 0.00 | 0.00 | 0.00 | 81 | 1057.2 |
| 20260506200205 | 48 | 22 | 3.5 | 0.0 | 0.00 | 0.00 | 0.00 | 81 | 1057.2 |
| 20260506200052 | 48 | 22 | 8.7 | 0.0 | 0.00 | 0.00 | 0.00 | 81 | 1057.2 |
| 20260506195941 | 47 | 337 | 6.1 | 0.0 | 0.00 | 0.00 | 0.00 | 81 | 1057.2 |
| 20260506195833 | 47 | 22 | 5.2 | 0.0 | 0.00 | 0.00 | 0.00 | 82 | 1057.2 |
| 20260506195720 | 47 | 315 | 6.1 | 0.0 | 0.00 | 0.00 | 0.00 | 82 | 1057.3 |
| 20260506195558 | 47 | 0 | 0.0 | 0.0 | 0.00 | 0.00 | 0.00 | 82 | 1057.2 |
| 20260506195429 | 47 | 22 | 5.2 | 0.0 | 0.00 | 0.00 | 0.00 | 82 | 1057.3 |
| 20260506195316 | 47 | 22 | 4.3 | 0.0 | 0.00 | 0.00 | 0.00 | 82 | 1057.2 |
| 20260506195147 | 47 | 22 | 6.1 | 0.0 | 0.00 | 0.00 | 0.00 | 82 | 1057.2 |
| 20260506195034 | 47 | 67 | 4.3 | 0.0 | 0.00 | 0.00 | 0.00 | 82 | 1057.2 |
| 20260506194920 | 47 | 22 | 10.4 | 0.0 | 0.00 | 0.00 | 0.00 | 82 | 1057.2 |
| 20260506194802 | 47 | 22 | 13.9 | 0.0 | 0.00 | 0.00 | 0.00 | 82 | 1057.2 |
| 20260506194654 | 48 | 0 | 4.3 | 0.0 | 0.00 | 0.00 | 0.00 | 82 | 1057.2 |
| 20260506194541 | 48 | 0 | 6.1 | 0.0 | 0.00 | 0.00 | 0.00 | 83 | 1057.2 |
| 20260506194412 | 48 | 22 | 10.4 | 0.0 | 0.00 | 0.00 | 0.00 | 83 | 1057.1 |
| 20260506194258 | 48 | 0 | 5.2 | 0.0 | 0.00 | 0.00 | 0.00 | 83 | 1057.2 |
| 20260506194130 | 48 | 67 | 10.4 | 0.0 | 0.00 | 0.00 | 0.00 | 83 | 1057.2 |
| 20260506194025 | 48 | 45 | 8.7 | 0.0 | 0.00 | 0.00 | 0.00 | 83 | 1057.2 |
| 20260506193911 | 48 | 0 | 9.6 | 0.0 | 0.00 | 0.00 | 0.00 | 83 | 1057.2 |
| 20260506193744 | 48 | 22 | 5.2 | 0.0 | 0.00 | 0.00 | 0.00 | 83 | 1057.1 |
| 20260506193638 | 48 | 45 | 7.8 | 0.0 | 0.00 | 0.00 | 0.00 | 83 | 1057.2 |
| 20260506193534 | 48 | 45 | 6.1 | 0.0 | 0.00 | 0.00 | 0.00 | 83 | 1057.1 |
| 20260506193427 | 48 | 0 | 7.0 | 0.0 | 0.00 | 0.00 | 0.00 | 82 | 1057.2 |
| 20260506193313 | 48 | 45 | 6.1 | 0.0 | 0.00 | 0.00 | 0.00 | 82 | 1057.1 |
| 20260506193152 | 48 | 0 | 4.3 | 0.0 | 0.00 | 0.00 | 0.00 | 82 | 1057.1 |
| 20260506193031 | 48 | 22 | 2.6 | 0.0 | 0.00 | 0.00 | 0.00 | 83 | 1057.1 |
| 20260506192926 | 48 | 22 | 9.6 | 0.0 | 0.00 | 0.00 | 0.00 | 83 | 1057.1 |
| 20260506192815 | 48 | 0 | 7.8 | 0.0 | 0.00 | 0.00 | 0.00 | 83 | 1057.1 |
| 20260506192708 | 48 | 45 | 13.9 | 0.0 | 0.00 | 0.00 | 0.00 | 83 | 1057.1 |
| 20260506192555 | 48 | 0 | 5.2 | 0.0 | 0.00 | 0.00 | 0.00 | 82 | 1057.1 |
| 20260506192449 | 48 | 337 | 7.8 | 0.0 | 0.00 | 0.00 | 0.00 | 82 | 1057.0 |
| 20260506192336 | 48 | 0 | 3.5 | 0.0 | 0.00 | 0.00 | 0.00 | 82 | 1057.0 |
| 20260506192222 | 48 | 0 | 5.2 | 0.0 | 0.00 | 0.00 | 0.00 | 81 | 1057.0 |
| 20260506192053 | 48 | 22 | 2.6 | 0.0 | 0.00 | 0.00 | 0.00 | 81 | 1057.0 |
| 20260506191934 | 48 | 45 | 6.1 | 0.0 | 0.00 | 0.00 | 0.00 | 81 | 1057.0 |
| 20260506191819 | 48 | 45 | 3.5 | 0.0 | 0.00 | 0.00 | 0.00 | 81 | 1057.0 |
| 20260506191706 | 48 | 22 | 13.0 | 0.0 | 0.00 | 0.00 | 0.00 | 81 | 1056.9 |
| 20260506191553 | 48 | 22 | 5.2 | 0.0 | 0.00 | 0.00 | 0.00 | 81 | 1056.9 |
| 20260506191433 | 48 | 90 | 6.1 | 0.0 | 0.00 | 0.00 | 0.00 | 81 | 1056.9 |
| 20260506191318 | 48 | 22 | 7.8 | 0.0 | 0.00 | 0.00 | 0.00 | 81 | 1056.9 |
| 20260506191206 | 48 | 45 | 5.2 | 0.0 | 0.00 | 0.00 | 0.00 | 80 | 1056.9 |
| 20260506191100 | 48 | 22 | 11.3 | 0.0 | 0.00 | 0.00 | 0.00 | 80 | 1056.9 |
| 20260506190946 | 49 | 0 | 8.7 | 0.0 | 0.00 | 0.00 | 0.00 | 81 | 1056.9 |
| 20260506190828 | 49 | 0 | 6.1 | 0.0 | 0.00 | 0.00 | 0.00 | 80 | 1056.9 |
| 20260506190724 | 49 | 22 | 5.2 | 0.0 | 0.00 | 0.00 | 0.00 | 80 | 1056.8 |
| 20260506190616 | 49 | 22 | 7.8 | 0.0 | 0.00 | 0.00 | 0.00 | 80 | 1056.9 |
| 20260506190504 | 49 | 0 | 5.2 | 0.0 | 0.00 | 0.00 | 0.00 | 80 | 1056.8 |
| 20260506190358 | 49 | 45 | 5.2 | 0.0 | 0.00 | 0.00 | 0.00 | 79 | 1056.9 |
| 20260506190239 | 49 | 22 | 5.2 | 0.0 | 0.00 | 0.00 | 0.00 | 79 | 1056.8 |
| 20260506190126 | 49 | 22 | 5.2 | 0.0 | 0.00 | 0.00 | 0.00 | 79 | 1056.7 |
| 20260506190019 | 49 | 22 | 10.4 | 0.0 | 0.00 | 0.00 | 0.00 | 79 | 1056.7 |
| 20260506185906 | 49 | 22 | 7.0 | 0.0 | 0.00 | 0.00 | 0.00 | 78 | 1056.7 |
| 20260506185752 | 49 | 0 | 5.2 | 0.0 | 0.00 | 0.00 | 0.00 | 78 | 1056.7 |
| 20260506185631 | 50 | 337 | 5.2 | 0.0 | 0.00 | 0.00 | 0.00 | 78 | 1056.6 |
| 20260506185509 | 50 | 45 | 5.2 | 0.0 | 0.00 | 0.00 | 0.00 | 78 | 1056.6 |
| 20260506185348 | 50 | 0 | 5.2 | 0.0 | 0.00 | 0.00 | 0.00 | 78 | 1056.5 |
| 20260506185234 | 50 | 22 | 7.0 | 0.0 | 0.00 | 0.00 | 0.00 | 78 | 1056.5 |
| 20260506185129 | 50 | 0 | 7.0 | 0.0 | 0.00 | 0.00 | 0.00 | 77 | 1056.5 |
| 20260506185023 | 50 | 337 | 3.5 | 0.0 | 0.00 | 0.00 | 0.00 | 77 | 1056.5 |
| 20260506184909 | 50 | 0 | 4.3 | 0.0 | 0.00 | 0.00 | 0.00 | 77 | 1056.5 |
| 20260506184746 | 50 | 22 | 7.0 | 0.0 | 0.00 | 0.00 | 0.00 | 76 | 1056.4 |
| 20260506184634 | 50 | 22 | 7.8 | 0.0 | 0.00 | 0.00 | 0.00 | 76 | 1056.5 |
| 20260506184526 | 50 | 67 | 3.5 | 0.0 | 0.00 | 0.00 | 0.00 | 76 | 1056.5 |
| 20260506184421 | 51 | 0 | 7.8 | 0.0 | 0.00 | 0.00 | 0.00 | 76 | 1056.5 |
| 20260506184314 | 51 | 45 | 8.7 | 0.0 | 0.00 | 0.00 | 0.00 | 76 | 1056.5 |
| 20260506184209 | 51 | 0 | 3.5 | 0.0 | 0.00 | 0.00 | 0.00 | 76 | 1056.5 |
| 20260506184103 | 51 | 337 | 7.8 | 0.0 | 0.00 | 0.00 | 0.00 | 75 | 1056.6 |
| 20260506183943 | 51 | 22 | 6.1 | 0.0 | 0.00 | 0.00 | 0.00 | 75 | 1056.5 |
| 20260506183838 | 51 | 22 | 4.3 | 0.0 | 0.00 | 0.00 | 0.00 | 76 | 1056.4 |
| 20260506183732 | 51 | 45 | 6.1 | 0.0 | 0.00 | 0.00 | 0.00 | 75 | 1056.4 |
| 20260506183610 | 51 | 0 | 5.2 | 0.0 | 0.00 | 0.00 | 0.00 | 75 | 1056.4 |
| 20260506183449 | 51 | 0 | 5.2 | 0.0 | 0.00 | 0.00 | 0.00 | 75 | 1056.5 |
| 20260506183336 | 51 | 0 | 5.2 | 0.0 | 0.00 | 0.00 | 0.00 | 75 | 1056.5 |
| 20260506183215 | 51 | 22 | 4.3 | 0.0 | 0.00 | 0.00 | 0.00 | 75 | 1056.5 |
| 20260506183054 | 51 | 45 | 5.2 | 0.0 | 0.00 | 0.00 | 0.00 | 75 | 1056.5 |
| 20260506182940 | 52 | 337 | 5.2 | 0.0 | 0.00 | 0.00 | 0.00 | 75 | 1056.5 |
| 20260506182829 | 52 | 0 | 5.2 | 0.0 | 0.00 | 0.00 | 0.00 | 74 | 1056.4 |
| 20260506182725 | 51 | 22 | 13.9 | 0.0 | 0.00 | 0.00 | 0.00 | 74 | 1056.3 |
| 20260506182617 | 52 | 45 | 7.8 | 0.0 | 0.00 | 0.00 | 0.00 | 74 | 1056.4 |
| 20260506182506 | 52 | 0 | 16.5 | 0.0 | 0.00 | 0.00 | 0.00 | 73 | 1056.4 |
| 20260506182353 | 52 | 22 | 13.9 | 0.0 | 0.00 | 0.00 | 0.00 | 72 | 1056.3 |
| 20260506182247 | 52 | 0 | 7.0 | 0.0 | 0.00 | 0.00 | 0.00 | 73 | 1056.3 |
| 20260506182141 | 52 | 292 | 8.7 | 0.0 | 0.00 | 0.00 | 0.00 | 73 | 1056.2 |
| 20260506182027 | 52 | 22 | 4.3 | 0.0 | 0.00 | 0.00 | 0.00 | 73 | 1056.3 |
| 20260506181908 | 52 | 45 | 4.3 | 0.0 | 0.00 | 0.00 | 0.00 | 73 | 1056.2 |
| 20260506181801 | 52 | 0 | 9.6 | 0.0 | 0.00 | 0.00 | 0.00 | 73 | 1056.2 |
| 20260506181640 | 52 | 22 | 5.2 | 0.0 | 0.00 | 0.00 | 0.00 | 73 | 1056.2 |
| 20260506181527 | 52 | 337 | 5.2 | 0.0 | 0.00 | 0.00 | 0.00 | 73 | 1056.2 |
| 20260506181408 | 52 | 22 | 10.4 | 0.0 | 0.00 | 0.00 | 0.00 | 73 | 1056.2 |
| 20260506181301 | 52 | 0 | 4.3 | 0.0 | 0.00 | 0.00 | 0.00 | 73 | 1056.2 |
| 20260506181148 | 52 | 0 | 8.7 | 0.0 | 0.00 | 0.00 | 0.00 | 73 | 1056.1 |
| 20260506181029 | 52 | 45 | 4.3 | 0.0 | 0.00 | 0.00 | 0.00 | 73 | 1056.2 |
| 20260506180924 | 52 | 67 | 5.2 | 0.0 | 0.00 | 0.00 | 0.00 | 73 | 1056.1 |
| 20260506180817 | 52 | 0 | 9.6 | 0.0 | 0.00 | 0.00 | 0.00 | 74 | 1056.1 |
| 20260506180655 | 52 | 67 | 10.4 | 0.0 | 0.00 | 0.00 | 0.00 | 74 | 1056.1 |
| 20260506180542 | 52 | 22 | 6.1 | 0.0 | 0.00 | 0.00 | 0.00 | 74 | 1056.1 |
| 20260506180429 | 52 | 0 | 15.6 | 0.0 | 0.00 | 0.00 | 0.00 | 74 | 1056.0 |
| 20260506180307 | 52 | 22 | 11.3 | 0.0 | 0.00 | 0.00 | 0.00 | 74 | 1056.1 |
| 20260506180148 | 52 | 0 | 9.6 | 0.0 | 0.00 | 0.00 | 0.00 | 74 | 1056.1 |
| 20260506180044 | 52 | 22 | 9.6 | 0.0 | 0.00 | 0.00 | 0.00 | 74 | 1056.1 |
| 20260506175939 | 52 | 0 | 7.8 | 0.0 | 0.00 | 0.00 | 0.00 | 74 | 1056.1 |
| 20260506175826 | 52 | 22 | 4.3 | 0.0 | 0.00 | 0.00 | 0.00 | 73 | 1056.1 |
| 20260506175719 | 52 | 0 | 6.1 | 0.0 | 0.00 | 0.00 | 0.00 | 73 | 1056.1 |
| 20260506175605 | 52 | 0 | 6.1 | 0.0 | 0.00 | 0.00 | 0.00 | 73 | 1056.0 |
| 20260506175435 | 52 | 337 | 8.7 | 0.0 | 0.00 | 0.00 | 0.00 | 73 | 1056.1 |
| 20260506175323 | 52 | 45 | 6.1 | 0.0 | 0.00 | 0.00 | 0.00 | 73 | 1056.1 |
| 20260506175209 | 52 | 22 | 7.8 | 0.0 | 0.00 | 0.00 | 0.00 | 73 | 1056.0 |
| 20260506175048 | 52 | 337 | 5.2 | 0.0 | 0.00 | 0.00 | 0.00 | 73 | 1056.0 |
| 20260506174935 | 52 | 337 | 10.4 | 0.0 | 0.00 | 0.00 | 0.00 | 73 | 1056.0 |
| 20260506174814 | 52 | 0 | 5.2 | 0.0 | 0.00 | 0.00 | 0.00 | 74 | 1055.9 |
| 20260506174654 | 52 | 0 | 0.0 | 0.0 | 0.00 | 0.00 | 0.00 | 74 | 1056.0 |
| 20260506174548 | 52 | 0 | 13.0 | 0.0 | 0.00 | 0.00 | 0.00 | 75 | 1056.0 |
| 20260506174443 | 52 | 0 | 5.2 | 0.0 | 0.00 | 0.00 | 0.00 | 75 | 1055.9 |
| 20260506174329 | 52 | 0 | 2.6 | 0.0 | 0.00 | 0.00 | 0.00 | 75 | 1055.9 |
| 20260506174208 | 52 | 0 | 3.5 | 0.0 | 0.00 | 0.00 | 0.00 | 75 | 1055.8 |
| 20260506174055 | 52 | 0 | 5.2 | 0.0 | 0.00 | 0.00 | 0.00 | 75 | 1055.9 |
| 20260506173941 | 52 | 22 | 10.4 | 0.0 | 0.00 | 0.00 | 0.00 | 75 | 1055.9 |
| 20260506173828 | 52 | 0 | 5.2 | 0.0 | 0.00 | 0.00 | 0.00 | 74 | 1055.8 |
| 20260506173443 | 52 | 45 | 14.8 | 0.0 | 0.00 | 0.00 | 0.00 | 75 | 1055.8 |
| 20260506173335 | 52 | 0 | 5.2 | 0.0 | 0.00 | 0.00 | 0.00 | 75 | 1055.8 |
| 20260506173222 | 52 | 0 | 3.5 | 0.0 | 0.00 | 0.00 | 0.00 | 75 | 1055.8 |
| 20260506173110 | 52 | 337 | 6.1 | 0.0 | 0.00 | 0.00 | 0.00 | 75 | 1055.8 |
| 20260506172957 | 52 | 0 | 7.0 | 0.0 | 0.00 | 0.00 | 0.00 | 75 | 1055.8 |
| 20260506172845 | 52 | 22 | 5.2 | 0.0 | 0.00 | 0.00 | 0.00 | 74 | 1055.8 |
| 20260506172738 | 52 | 45 | 14.8 | 0.0 | 0.00 | 0.00 | 0.00 | 74 | 1055.8 |
| 20260506172627 | 52 | 22 | 15.6 | 0.0 | 0.00 | 0.00 | 0.00 | 75 | 1055.8 |
| 20260506172520 | 52 | 0 | 7.8 | 0.0 | 0.00 | 0.00 | 0.00 | 75 | 1055.8 |
| 20260506172407 | 52 | 22 | 7.8 | 0.0 | 0.00 | 0.00 | 0.00 | 75 | 1055.8 |
| 20260506172306 | 52 | 45 | 6.1 | 0.0 | 0.00 | 0.00 | 0.00 | 74 | 1055.8 |
| 20260506172150 | 52 | 22 | 6.1 | 0.0 | 0.00 | 0.00 | 0.00 | 74 | 1055.8 |
| 20260506172035 | 52 | 22 | 5.2 | 0.0 | 0.00 | 0.00 | 0.00 | 74 | 1055.8 |
| 20260506171925 | 52 | 67 | 11.3 | 0.0 | 0.00 | 0.00 | 0.00 | 74 | 1055.8 |
| 20260506171820 | 52 | 22 | 10.4 | 0.0 | 0.00 | 0.00 | 0.00 | 73 | 1055.8 |
| 20260506171712 | 52 | 67 | 12.2 | 0.0 | 0.00 | 0.00 | 0.00 | 73 | 1055.8 |
| 20260506171559 | 52 | 22 | 6.1 | 0.0 | 0.00 | 0.00 | 0.00 | 73 | 1055.8 |
| 20260506171446 | 52 | 22 | 12.2 | 0.0 | 0.00 | 0.00 | 0.00 | 73 | 1055.8 |
| 20260506171332 | 52 | 0 | 6.1 | 0.0 | 0.00 | 0.00 | 0.00 | 73 | 1055.8 |
| 20260506171211 | 52 | 22 | 11.3 | 0.0 | 0.00 | 0.00 | 0.00 | 74 | 1055.8 |
| 20260506171052 | 52 | 22 | 8.7 | 0.0 | 0.00 | 0.00 | 0.00 | 74 | 1055.8 |
| 20260506170948 | 52 | 337 | 12.2 | 0.0 | 0.00 | 0.00 | 0.00 | 74 | 1055.8 |
| 20260506170841 | 52 | 337 | 8.7 | 0.0 | 0.00 | 0.00 | 0.00 | 74 | 1055.8 |
| 20260506170728 | 52 | 22 | 13.9 | 0.0 | 0.00 | 0.00 | 0.00 | 74 | 1055.8 |
| 20260506170615 | 52 | 22 | 7.0 | 0.0 | 0.00 | 0.00 | 0.00 | 74 | 1055.8 |
| 20260506170453 | 52 | 315 | 6.1 | 0.0 | 0.00 | 0.00 | 0.00 | 74 | 1055.8 |
| 20260506170341 | 52 | 22 | 5.2 | 0.0 | 0.00 | 0.00 | 0.00 | 73 | 1055.8 |
| 20260506170228 | 52 | 22 | 7.8 | 0.0 | 0.00 | 0.00 | 0.00 | 73 | 1055.8 |
| 20260506170124 | 52 | 22 | 13.9 | 0.0 | 0.00 | 0.00 | 0.00 | 72 | 1055.8 |
| 20260506170018 | 52 | 0 | 3.5 | 0.0 | 0.00 | 0.00 | 0.00 | 72 | 1055.7 |
| 20260506165904 | 52 | 0 | 5.2 | 0.0 | 0.00 | 0.00 | 0.00 | 72 | 1055.8 |
| 20260506165742 | 52 | 22 | 6.1 | 0.0 | 0.00 | 0.00 | 0.00 | 72 | 1055.8 |
| 20260506165621 | 52 | 67 | 12.2 | 0.0 | 0.00 | 0.00 | 0.00 | 72 | 1055.8 |
| 20260506165502 | 52 | 0 | 5.2 | 0.0 | 0.00 | 0.00 | 0.00 | 72 | 1055.8 |
| 20260506165356 | 52 | 45 | 11.3 | 0.0 | 0.00 | 0.00 | 0.00 | 72 | 1055.8 |
| 20260506165253 | 52 | 0 | 5.2 | 0.0 | 0.00 | 0.00 | 0.00 | 71 | 1055.8 |
| 20260506165144 | 52 | 45 | 9.6 | 0.0 | 0.00 | 0.00 | 0.00 | 71 | 1055.8 |
| 20260506165030 | 52 | 0 | 8.7 | 0.0 | 0.00 | 0.00 | 0.00 | 71 | 1055.8 |
| 20260506164923 | 52 | 0 | 5.2 | 0.0 | 0.00 | 0.00 | 0.00 | 71 | 1055.8 |
| 20260506164753 | 52 | 22 | 8.7 | 0.0 | 0.00 | 0.00 | 0.00 | 71 | 1055.8 |
| 20260506164638 | 52 | 337 | 6.1 | 0.0 | 0.00 | 0.00 | 0.00 | 71 | 1055.8 |
| 20260506164516 | 52 | 0 | 10.4 | 0.0 | 0.00 | 0.00 | 0.00 | 71 | 1055.8 |
| 20260506164405 | 52 | 0 | 8.7 | 0.0 | 0.00 | 0.00 | 0.00 | 71 | 1055.8 |
| 20260506164259 | 53 | 22 | 3.5 | 0.0 | 0.00 | 0.00 | 0.00 | 70 | 1055.8 |
| 20260506164150 | 53 | 337 | 7.0 | 0.0 | 0.00 | 0.00 | 0.00 | 70 | 1055.8 |
| 20260506164036 | 53 | 0 | 8.7 | 0.0 | 0.00 | 0.00 | 0.00 | 71 | 1055.8 |
| 20260506163932 | 53 | 45 | 5.2 | 0.0 | 0.00 | 0.00 | 0.00 | 71 | 1055.8 |
| 20260506163817 | 53 | 22 | 4.3 | 0.0 | 0.00 | 0.00 | 0.00 | 70 | 1055.8 |
| 20260506163704 | 53 | 22 | 7.8 | 0.0 | 0.00 | 0.00 | 0.00 | 70 | 1055.8 |
| 20260506163553 | 53 | 22 | 4.3 | 0.0 | 0.00 | 0.00 | 0.00 | 70 | 1055.8 |
| 20260506163447 | 53 | 337 | 8.7 | 0.0 | 0.00 | 0.00 | 0.00 | 70 | 1055.8 |
| 20260506163334 | 53 | 0 | 8.7 | 0.0 | 0.00 | 0.00 | 0.00 | 69 | 1055.8 |
| 20260506163229 | 54 | 22 | 5.2 | 0.0 | 0.00 | 0.00 | 0.00 | 68 | 1055.8 |
| 20260506163124 | 54 | 0 | 6.1 | 0.0 | 0.00 | 0.00 | 0.00 | 68 | 1055.8 |
| 20260506163010 | 54 | 45 | 13.0 | 0.0 | 0.00 | 0.00 | 0.00 | 68 | 1055.8 |
| 20260506162852 | 54 | 22 | 8.7 | 0.0 | 0.00 | 0.00 | 0.00 | 68 | 1055.8 |
| 20260506162744 | 54 | 0 | 5.2 | 0.0 | 0.00 | 0.00 | 0.00 | 68 | 1055.8 |
| 20260506162630 | 54 | 22 | 7.8 | 0.0 | 0.00 | 0.00 | 0.00 | 68 | 1055.8 |
| 20260506162510 | 54 | 22 | 5.2 | 0.0 | 0.00 | 0.00 | 0.00 | 69 | 1055.8 |
| 20260506162359 | 54 | 45 | 13.0 | 0.0 | 0.00 | 0.00 | 0.00 | 69 | 1055.8 |
| 20260506162252 | 54 | 0 | 13.0 | 0.0 | 0.00 | 0.00 | 0.00 | 70 | 1055.8 |
| 20260506162147 | 54 | 0 | 5.2 | 0.0 | 0.00 | 0.00 | 0.00 | 71 | 1055.8 |
| 20260506162033 | 54 | 22 | 7.0 | 0.0 | 0.00 | 0.00 | 0.00 | 71 | 1055.8 |
| 20260506161928 | 53 | 337 | 5.2 | 0.0 | 0.00 | 0.00 | 0.00 | 71 | 1055.8 |
| 20260506161821 | 53 | 67 | 5.2 | 0.0 | 0.00 | 0.00 | 0.00 | 71 | 1055.8 |
| 20260506161708 | 53 | 0 | 11.3 | 0.0 | 0.00 | 0.00 | 0.00 | 71 | 1055.7 |
| 20260506161557 | 53 | 337 | 11.3 | 0.0 | 0.00 | 0.00 | 0.00 | 71 | 1055.8 |
| 20260506161450 | 53 | 0 | 6.1 | 0.0 | 0.00 | 0.00 | 0.00 | 71 | 1055.8 |
| 20260506161330 | 53 | 22 | 7.0 | 0.0 | 0.00 | 0.00 | 0.00 | 72 | 1055.8 |
| 20260506161216 | 53 | 0 | 13.0 | 0.0 | 0.00 | 0.00 | 0.00 | 72 | 1055.8 |
| 20260506161103 | 53 | 22 | 5.2 | 0.0 | 0.00 | 0.00 | 0.00 | 72 | 1055.7 |
| 20260506160942 | 53 | 0 | 5.2 | 0.0 | 0.00 | 0.00 | 0.00 | 72 | 1055.8 |
| 20260506160837 | 53 | 22 | 4.3 | 0.0 | 0.00 | 0.00 | 0.00 | 72 | 1055.8 |
| 20260506160732 | 53 | 22 | 13.0 | 0.0 | 0.00 | 0.00 | 0.00 | 71 | 1055.7 |
| 20260506160620 | 53 | 0 | 5.2 | 0.0 | 0.00 | 0.00 | 0.00 | 71 | 1055.7 |
| 20260506160515 | 53 | 22 | 14.8 | 0.0 | 0.00 | 0.00 | 0.00 | 71 | 1055.8 |
| 20260506160407 | 53 | 0 | 6.1 | 0.0 | 0.00 | 0.00 | 0.00 | 71 | 1055.8 |
| 20260506160254 | 53 | 45 | 7.0 | 0.0 | 0.00 | 0.00 | 0.00 | 71 | 1055.7 |
| 20260506160143 | 53 | 337 | 10.4 | 0.0 | 0.00 | 0.00 | 0.00 | 70 | 1055.7 |
| 20260506160030 | 53 | 22 | 7.8 | 0.0 | 0.00 | 0.00 | 0.00 | 70 | 1055.7 |
| 20260506155923 | 53 | 337 | 5.2 | 0.0 | 0.00 | 0.00 | 0.00 | 70 | 1055.7 |
| 20260506155813 | 53 | 22 | 4.3 | 0.0 | 0.00 | 0.00 | 0.00 | 71 | 1055.8 |
| 20260506155658 | 53 | 0 | 4.3 | 0.0 | 0.00 | 0.00 | 0.00 | 70 | 1055.8 |
| 20260506155545 | 53 | 45 | 5.2 | 0.0 | 0.00 | 0.00 | 0.00 | 69 | 1055.8 |
| 20260506155432 | 53 | 22 | 5.2 | 0.0 | 0.00 | 0.00 | 0.00 | 68 | 1055.7 |
| 20260506155326 | 54 | 0 | 5.2 | 0.0 | 0.00 | 0.00 | 0.00 | 68 | 1055.8 |
| 20260506155205 | 54 | 0 | 7.8 | 0.0 | 0.00 | 0.00 | 0.00 | 67 | 1055.8 |
| 20260506155052 | 54 | 45 | 13.9 | 0.0 | 0.00 | 0.00 | 0.00 | 66 | 1055.8 |
| 20260506154933 | 54 | 112 | 11.3 | 0.0 | 0.00 | 0.00 | 0.00 | 66 | 1055.8 |
| 20260506154818 | 55 | 0 | 6.1 | 0.0 | 0.00 | 0.00 | 0.00 | 65 | 1055.8 |
| 20260506154705 | 55 | 22 | 5.2 | 0.0 | 0.00 | 0.00 | 0.00 | 66 | 1055.8 |
| 20260506154552 | 55 | 0 | 7.0 | 0.0 | 0.00 | 0.00 | 0.00 | 67 | 1055.8 |
| 20260506154446 | 55 | 22 | 8.7 | 0.0 | 0.00 | 0.00 | 0.00 | 67 | 1055.8 |
| 20260506154334 | 55 | 0 | 3.5 | 0.0 | 0.00 | 0.00 | 0.00 | 67 | 1055.8 |
| 20260506154212 | 55 | 337 | 4.3 | 0.0 | 0.00 | 0.00 | 0.00 | 68 | 1055.8 |
| 20260506154058 | 55 | 0 | 7.0 | 0.0 | 0.00 | 0.00 | 0.00 | 68 | 1055.8 |
| 20260506153948 | 55 | 22 | 10.4 | 0.0 | 0.00 | 0.00 | 0.00 | 68 | 1055.8 |
| 20260506153840 | 55 | 45 | 5.2 | 0.0 | 0.00 | 0.00 | 0.00 | 68 | 1055.8 |
| 20260506153719 | 55 | 0 | 13.0 | 0.0 | 0.00 | 0.00 | 0.00 | 67 | 1055.8 |
| 20260506153606 | 55 | 22 | 2.6 | 0.0 | 0.00 | 0.00 | 0.00 | 67 | 1055.8 |
| 20260506153445 | 55 | 0 | 5.2 | 0.0 | 0.00 | 0.00 | 0.00 | 66 | 1055.8 |
| 20260506153325 | 55 | 22 | 11.3 | 0.0 | 0.00 | 0.00 | 0.00 | 65 | 1055.8 |
| 20260506153221 | 56 | 22 | 13.0 | 0.0 | 0.00 | 0.00 | 0.00 | 65 | 1055.8 |
| 20260506153115 | 56 | 45 | 12.2 | 0.0 | 0.00 | 0.00 | 0.00 | 66 | 1055.8 |
| 20260506153009 | 56 | 67 | 8.7 | 0.0 | 0.00 | 0.00 | 0.00 | 66 | 1055.8 |
| 20260506152904 | 55 | 0 | 14.8 | 0.0 | 0.00 | 0.00 | 0.00 | 67 | 1055.8 |
| 20260506152735 | 55 | 22 | 11.3 | 0.0 | 0.00 | 0.00 | 0.00 | 67 | 1055.8 |
| 20260506152622 | 55 | 337 | 4.3 | 0.0 | 0.00 | 0.00 | 0.00 | 67 | 1055.8 |
| 20260506152500 | 55 | 22 | 3.5 | 0.0 | 0.00 | 0.00 | 0.00 | 67 | 1055.8 |
| 20260506152348 | 55 | 0 | 7.8 | 0.0 | 0.00 | 0.00 | 0.00 | 66 | 1055.8 |
| 20260506152234 | 55 | 45 | 7.8 | 0.0 | 0.00 | 0.00 | 0.00 | 67 | 1055.7 |
| 20260506152113 | 55 | 0 | 5.2 | 0.0 | 0.00 | 0.00 | 0.00 | 66 | 1055.8 |
| 20260506152008 | 55 | 22 | 7.8 | 0.0 | 0.00 | 0.00 | 0.00 | 67 | 1055.8 |
| 20260506151857 | 55 | 0 | 5.2 | 0.0 | 0.00 | 0.00 | 0.00 | 67 | 1055.8 |
| 20260506151749 | 55 | 0 | 4.3 | 0.0 | 0.00 | 0.00 | 0.00 | 68 | 1055.8 |
| 20260506151636 | 55 | 0 | 5.2 | 0.0 | 0.00 | 0.00 | 0.00 | 67 | 1055.8 |
| 20260506151523 | 55 | 45 | 7.0 | 0.0 | 0.00 | 0.00 | 0.00 | 66 | 1055.8 |
| 20260506151411 | 55 | 0 | 11.3 | 0.0 | 0.00 | 0.00 | 0.00 | 66 | 1055.8 |
| 20260506151251 | 56 | 45 | 13.9 | 0.0 | 0.00 | 0.00 | 0.00 | 66 | 1055.7 |
| 20260506151146 | 56 | 22 | 7.0 | 0.0 | 0.00 | 0.00 | 0.00 | 66 | 1055.7 |
| 20260506151040 | 56 | 0 | 8.7 | 0.0 | 0.00 | 0.00 | 0.00 | 66 | 1055.8 |
| 20260506150919 | 56 | 337 | 7.8 | 0.0 | 0.00 | 0.00 | 0.00 | 67 | 1055.7 |
| 20260506150806 | 56 | 22 | 5.2 | 0.0 | 0.00 | 0.00 | 0.00 | 66 | 1055.7 |
| 20260506150646 | 56 | 22 | 4.3 | 0.0 | 0.00 | 0.00 | 0.00 | 65 | 1055.7 |
| 20260506150539 | 56 | 45 | 8.7 | 0.0 | 0.00 | 0.00 | 0.00 | 64 | 1055.7 |
| 20260506150428 | 57 | 22 | 15.6 | 0.0 | 0.00 | 0.00 | 0.00 | 64 | 1055.6 |
| 20260506150313 | 57 | 0 | 9.6 | 0.0 | 0.00 | 0.00 | 0.00 | 64 | 1055.7 |
| 20260506150201 | 57 | 112 | 12.2 | 0.0 | 0.00 | 0.00 | 0.00 | 65 | 1055.7 |
| 20260506150055 | 57 | 22 | 5.2 | 0.0 | 0.00 | 0.00 | 0.00 | 65 | 1055.7 |
| 20260506145949 | 57 | 0 | 10.4 | 0.0 | 0.00 | 0.00 | 0.00 | 64 | 1055.7 |
| 20260506145828 | 58 | 45 | 7.8 | 0.0 | 0.00 | 0.00 | 0.00 | 63 | 1055.7 |
| 20260506145725 | 58 | 45 | 10.4 | 0.0 | 0.00 | 0.00 | 0.00 | 63 | 1055.7 |
| 20260506145618 | 58 | 45 | 8.7 | 0.0 | 0.00 | 0.00 | 0.00 | 63 | 1055.8 |
| 20260506145513 | 58 | 0 | 7.0 | 0.0 | 0.00 | 0.00 | 0.00 | 62 | 1055.7 |
| 20260506145408 | 58 | 337 | 10.4 | 0.0 | 0.00 | 0.00 | 0.00 | 63 | 1055.7 |
| 20260506145256 | 58 | 0 | 5.2 | 0.0 | 0.00 | 0.00 | 0.00 | 63 | 1055.7 |
| 20260506145152 | 58 | 45 | 5.2 | 0.0 | 0.00 | 0.00 | 0.00 | 63 | 1055.7 |
| 20260506145044 | 58 | 45 | 7.0 | 0.0 | 0.00 | 0.00 | 0.00 | 64 | 1055.7 |
| 20260506144923 | 58 | 337 | 7.0 | 0.0 | 0.00 | 0.00 | 0.00 | 63 | 1055.7 |
| 20260506144809 | 58 | 22 | 9.6 | 0.0 | 0.00 | 0.00 | 0.00 | 64 | 1055.7 |
| 20260506144648 | 58 | 0 | 7.8 | 0.0 | 0.00 | 0.00 | 0.00 | 64 | 1055.8 |
| 20260506144535 | 58 | 22 | 7.8 | 0.0 | 0.00 | 0.00 | 0.00 | 64 | 1055.8 |
| 20260506144425 | 58 | 0 | 5.2 | 0.0 | 0.00 | 0.00 | 0.00 | 64 | 1055.7 |
| 20260506144317 | 58 | 22 | 10.4 | 0.0 | 0.00 | 0.00 | 0.00 | 64 | 1055.7 |
| 20260506144157 | 58 | 0 | 5.2 | 0.0 | 0.00 | 0.00 | 0.00 | 63 | 1055.7 |
| 20260506144051 | 58 | 45 | 9.6 | 0.0 | 0.00 | 0.00 | 0.00 | 62 | 1055.6 |
| 20260506143938 | 58 | 22 | 13.0 | 0.0 | 0.00 | 0.00 | 0.00 | 63 | 1055.7 |
| 20260506143816 | 58 | 0 | 7.0 | 0.0 | 0.00 | 0.00 | 0.00 | 64 | 1055.7 |
| 20260506143704 | 58 | 22 | 5.2 | 0.0 | 0.00 | 0.00 | 0.00 | 65 | 1055.7 |
| 20260506143550 | 58 | 22 | 10.4 | 0.0 | 0.00 | 0.00 | 0.00 | 67 | 1055.8 |
| 20260506143429 | 57 | 90 | 5.2 | 0.0 | 0.00 | 0.00 | 0.00 | 67 | 1055.7 |
| 20260506143316 | 57 | 22 | 10.4 | 0.0 | 0.00 | 0.00 | 0.00 | 67 | 1055.7 |
| 20260506143155 | 57 | 22 | 7.8 | 0.0 | 0.00 | 0.00 | 0.00 | 67 | 1055.8 |
| 20260506143044 | 57 | 0 | 5.2 | 0.0 | 0.00 | 0.00 | 0.00 | 67 | 1055.8 |
| 20260506142937 | 57 | 22 | 6.1 | 0.0 | 0.00 | 0.00 | 0.00 | 67 | 1055.8 |
| 20260506142825 | 57 | 0 | 7.8 | 0.0 | 0.00 | 0.00 | 0.00 | 67 | 1055.7 |
| 20260506142720 | 57 | 0 | 9.6 | 0.0 | 0.00 | 0.00 | 0.00 | 68 | 1055.8 |
| 20260506142614 | 57 | 45 | 9.6 | 0.0 | 0.00 | 0.00 | 0.00 | 67 | 1055.8 |
| 20260506142509 | 57 | 337 | 7.8 | 0.0 | 0.00 | 0.00 | 0.00 | 67 | 1055.8 |
| 20260506142404 | 57 | 45 | 15.6 | 0.0 | 0.00 | 0.00 | 0.00 | 67 | 1055.8 |
| 20260506142258 | 57 | 22 | 7.8 | 0.0 | 0.00 | 0.00 | 0.00 | 67 | 1055.8 |
| 20260506142140 | 57 | 90 | 7.8 | 0.0 | 0.00 | 0.00 | 0.00 | 67 | 1055.8 |
| 20260506142032 | 57 | 67 | 8.7 | 0.0 | 0.00 | 0.00 | 0.00 | 68 | 1055.8 |
| 20260506141911 | 57 | 337 | 4.3 | 0.0 | 0.00 | 0.00 | 0.00 | 67 | 1055.8 |
| 20260506141749 | 57 | 22 | 9.6 | 0.0 | 0.00 | 0.00 | 0.00 | 67 | 1055.9 |
| 20260506141629 | 57 | 22 | 6.1 | 0.0 | 0.00 | 0.00 | 0.00 | 68 | 1055.9 |
| 20260506141515 | 57 | 0 | 6.1 | 0.0 | 0.00 | 0.00 | 0.00 | 69 | 1055.9 |
| 20260506141355 | 57 | 45 | 9.6 | 0.0 | 0.00 | 0.00 | 0.00 | 68 | 1055.8 |
| 20260506141250 | 57 | 22 | 7.8 | 0.0 | 0.00 | 0.00 | 0.00 | 68 | 1055.9 |
| 20260506141128 | 57 | 22 | 9.6 | 0.0 | 0.00 | 0.00 | 0.00 | 69 | 1055.8 |
| 20260506141009 | 57 | 0 | 0.0 | 0.0 | 0.00 | 0.00 | 0.00 | 69 | 1055.8 |
| 20260506140902 | 57 | 22 | 7.0 | 0.0 | 0.00 | 0.00 | 0.00 | 68 | 1055.9 |
| 20260506140749 | 57 | 22 | 5.2 | 0.0 | 0.00 | 0.00 | 0.00 | 68 | 1055.9 |
| 20260506140643 | 57 | 22 | 7.0 | 0.0 | 0.00 | 0.00 | 0.00 | 69 | 1055.9 |
| 20260506140529 | 57 | 0 | 9.6 | 0.0 | 0.00 | 0.00 | 0.00 | 68 | 1055.8 |
| 20260506140401 | 57 | 0 | 5.2 | 0.0 | 0.00 | 0.00 | 0.00 | 69 | 1055.8 |
| 20260506140242 | 57 | 90 | 10.4 | 0.0 | 0.00 | 0.00 | 0.00 | 69 | 1055.8 |
| 20260506140137 | 57 | 0 | 5.2 | 0.0 | 0.00 | 0.00 | 0.00 | 69 | 1055.8 |
| 20260506140030 | 57 | 0 | 5.2 | 0.0 | 0.00 | 0.00 | 0.00 | 70 | 1055.8 |
| 20260506135908 | 57 | 0 | 9.6 | 0.0 | 0.00 | 0.00 | 0.00 | 70 | 1055.8 |
| 20260506135747 | 57 | 0 | 3.5 | 0.0 | 0.00 | 0.00 | 0.00 | 70 | 1055.8 |
| 20260506135637 | 57 | 45 | 7.0 | 0.0 | 0.00 | 0.00 | 0.00 | 70 | 1055.8 |
| 20260506135530 | 56 | 45 | 4.3 | 0.0 | 0.00 | 0.00 | 0.00 | 71 | 1055.8 |
| 20260506135427 | 56 | 45 | 7.8 | 0.0 | 0.00 | 0.00 | 0.00 | 70 | 1055.8 |
| 20260506135320 | 57 | 0 | 7.8 | 0.0 | 0.00 | 0.00 | 0.00 | 70 | 1055.8 |
| 20260506135215 | 56 | 0 | 7.8 | 0.0 | 0.00 | 0.00 | 0.00 | 72 | 1055.9 |
| 20260506135102 | 56 | 0 | 4.3 | 0.0 | 0.00 | 0.00 | 0.00 | 72 | 1055.7 |
| 20260506134955 | 56 | 0 | 6.1 | 0.0 | 0.00 | 0.00 | 0.00 | 72 | 1055.8 |
| 20260506134835 | 56 | 22 | 7.8 | 0.0 | 0.00 | 0.00 | 0.00 | 71 | 1055.8 |
| 20260506134719 | 56 | 0 | 9.6 | 0.0 | 0.00 | 0.00 | 0.00 | 72 | 1055.8 |
| 20260506134607 | 56 | 0 | 3.5 | 0.0 | 0.00 | 0.00 | 0.00 | 72 | 1055.8 |
| 20260506134500 | 56 | 45 | 7.8 | 0.0 | 0.00 | 0.00 | 0.00 | 71 | 1055.8 |
| 20260506134355 | 56 | 45 | 12.2 | 0.0 | 0.00 | 0.00 | 0.00 | 70 | 1055.8 |
| 20260506134249 | 56 | 45 | 10.4 | 0.0 | 0.00 | 0.00 | 0.00 | 71 | 1055.8 |
| 20260506134144 | 56 | 22 | 13.9 | 0.0 | 0.00 | 0.00 | 0.00 | 73 | 1055.8 |
| 20260506134031 | 56 | 112 | 6.1 | 0.0 | 0.00 | 0.00 | 0.00 | 73 | 1055.8 |
| 20260506133909 | 55 | 0 | 0.0 | 0.0 | 0.00 | 0.00 | 0.00 | 72 | 1055.7 |
| 20260506133756 | 55 | 22 | 6.1 | 0.0 | 0.00 | 0.00 | 0.00 | 72 | 1055.8 |
| 20260506133651 | 55 | 22 | 4.3 | 0.0 | 0.00 | 0.00 | 0.00 | 71 | 1055.8 |
| 20260506133529 | 56 | 45 | 14.8 | 0.0 | 0.00 | 0.00 | 0.00 | 72 | 1055.7 |
| 20260506133408 | 56 | 67 | 11.3 | 0.0 | 0.00 | 0.00 | 0.00 | 72 | 1055.8 |
| 20260506133302 | 56 | 0 | 5.2 | 0.0 | 0.00 | 0.00 | 0.00 | 72 | 1055.7 |
| 20260506133148 | 56 | 0 | 7.8 | 0.0 | 0.00 | 0.00 | 0.00 | 72 | 1055.6 |
| 20260506133035 | 56 | 45 | 6.1 | 0.0 | 0.00 | 0.00 | 0.00 | 73 | 1055.7 |
| 20260506132914 | 56 | 22 | 9.6 | 0.0 | 0.00 | 0.00 | 0.00 | 73 | 1055.7 |
| 20260506132809 | 56 | 67 | 12.2 | 0.0 | 0.00 | 0.00 | 0.00 | 72 | 1055.7 |
| 20260506132705 | 55 | 45 | 6.1 | 0.0 | 0.00 | 0.00 | 0.00 | 72 | 1055.7 |
| 20260506132558 | 55 | 22 | 8.7 | 0.0 | 0.00 | 0.00 | 0.00 | 73 | 1055.7 |
| 20260506132438 | 55 | 45 | 8.7 | 0.0 | 0.00 | 0.00 | 0.00 | 73 | 1055.8 |
| 20260506132324 | 55 | 0 | 5.2 | 0.0 | 0.00 | 0.00 | 0.00 | 74 | 1055.8 |
| 20260506132214 | 55 | 45 | 5.2 | 0.0 | 0.00 | 0.00 | 0.00 | 74 | 1055.7 |
| 20260506132059 | 55 | 0 | 8.7 | 0.0 | 0.00 | 0.00 | 0.00 | 73 | 1055.7 |
| 20260506131953 | 55 | 0 | 16.5 | 0.0 | 0.00 | 0.00 | 0.00 | 74 | 1055.7 |
| 20260506131840 | 55 | 337 | 7.8 | 0.0 | 0.00 | 0.00 | 0.00 | 75 | 1055.7 |
| 20260506131719 | 55 | 337 | 7.8 | 0.0 | 0.00 | 0.00 | 0.00 | 74 | 1055.7 |
| 20260506131607 | 55 | 45 | 7.8 | 0.0 | 0.00 | 0.00 | 0.00 | 74 | 1055.6 |
| 20260506131500 | 55 | 45 | 6.1 | 0.0 | 0.00 | 0.00 | 0.00 | 73 | 1055.6 |
| 20260506131339 | 55 | 22 | 14.8 | 0.0 | 0.00 | 0.00 | 0.00 | 74 | 1055.7 |
| 20260506131226 | 55 | 0 | 12.2 | 0.0 | 0.00 | 0.00 | 0.00 | 74 | 1055.7 |
| 20260506131113 | 55 | 45 | 8.7 | 0.0 | 0.00 | 0.00 | 0.00 | 75 | 1055.7 |
| 20260506131008 | 55 | 0 | 9.6 | 0.0 | 0.00 | 0.00 | 0.00 | 75 | 1055.7 |
| 20260506130847 | 55 | 0 | 5.2 | 0.0 | 0.00 | 0.00 | 0.00 | 74 | 1055.7 |
| 20260506130733 | 55 | 45 | 5.2 | 0.0 | 0.00 | 0.00 | 0.00 | 74 | 1055.6 |
| 20260506130623 | 55 | 337 | 13.0 | 0.0 | 0.00 | 0.00 | 0.00 | 74 | 1055.6 |
| 20260506130517 | 55 | 0 | 7.8 | 0.0 | 0.00 | 0.00 | 0.00 | 75 | 1055.7 |
| 20260506130403 | 55 | 22 | 9.6 | 0.0 | 0.00 | 0.00 | 0.00 | 75 | 1055.7 |
| 20260506130257 | 55 | 45 | 5.2 | 0.0 | 0.00 | 0.00 | 0.00 | 75 | 1055.8 |
| 20260506130145 | 55 | 0 | 4.3 | 0.0 | 0.00 | 0.00 | 0.00 | 75 | 1055.7 |
| 20260506130031 | 55 | 0 | 5.2 | 0.0 | 0.00 | 0.00 | 0.00 | 75 | 1055.7 |
| 20260506125925 | 55 | 22 | 3.5 | 0.0 | 0.00 | 0.00 | 0.00 | 75 | 1055.7 |
| 20260506125813 | 55 | 337 | 10.4 | 0.0 | 0.00 | 0.00 | 0.00 | 75 | 1055.7 |
| 20260506125700 | 55 | 45 | 9.6 | 0.0 | 0.00 | 0.00 | 0.00 | 75 | 1055.6 |
| 20260506125538 | 55 | 22 | 10.4 | 0.0 | 0.00 | 0.00 | 0.00 | 75 | 1055.7 |
| 20260506125426 | 55 | 22 | 11.3 | 0.0 | 0.00 | 0.00 | 0.00 | 75 | 1055.7 |
| 20260506125315 | 55 | 22 | 12.2 | 0.0 | 0.00 | 0.00 | 0.00 | 75 | 1055.7 |
| 20260506125159 | 55 | 0 | 9.6 | 0.0 | 0.00 | 0.00 | 0.00 | 74 | 1055.6 |
| 20260506125046 | 55 | 337 | 12.2 | 0.0 | 0.00 | 0.00 | 0.00 | 74 | 1055.7 |
| 20260506124934 | 55 | 45 | 5.2 | 0.0 | 0.00 | 0.00 | 0.00 | 74 | 1055.7 |
| 20260506124828 | 55 | 0 | 11.3 | 0.0 | 0.00 | 0.00 | 0.00 | 74 | 1055.6 |
| 20260506124714 | 56 | 45 | 7.8 | 0.0 | 0.00 | 0.00 | 0.00 | 73 | 1055.6 |
| 20260506124553 | 56 | 22 | 11.3 | 0.0 | 0.00 | 0.00 | 0.00 | 73 | 1055.7 |
| 20260506124424 | 56 | 45 | 9.6 | 0.0 | 0.00 | 0.00 | 0.00 | 73 | 1055.6 |
| 20260506124312 | 56 | 22 | 7.0 | 0.0 | 0.00 | 0.00 | 0.00 | 73 | 1055.6 |
| 20260506124207 | 56 | 0 | 3.5 | 0.0 | 0.00 | 0.00 | 0.00 | 73 | 1055.5 |
| 20260506124053 | 56 | 22 | 6.1 | 0.0 | 0.00 | 0.00 | 0.00 | 74 | 1055.5 |
| 20260506123941 | 56 | 0 | 4.3 | 0.0 | 0.00 | 0.00 | 0.00 | 73 | 1055.5 |
| 20260506123818 | 56 | 0 | 11.3 | 0.0 | 0.00 | 0.00 | 0.00 | 73 | 1055.5 |
| 20260506123657 | 56 | 45 | 9.6 | 0.0 | 0.00 | 0.00 | 0.00 | 73 | 1055.5 |
| 20260506123537 | 56 | 22 | 10.4 | 0.0 | 0.00 | 0.00 | 0.00 | 73 | 1055.5 |
| 20260506123430 | 56 | 0 | 7.0 | 0.0 | 0.00 | 0.00 | 0.00 | 73 | 1055.5 |
| 20260506123309 | 56 | 0 | 9.6 | 0.0 | 0.00 | 0.00 | 0.00 | 72 | 1055.5 |
| 20260506123149 | 56 | 45 | 5.2 | 0.0 | 0.00 | 0.00 | 0.00 | 72 | 1055.5 |
| 20260506123045 | 56 | 22 | 4.3 | 0.0 | 0.00 | 0.00 | 0.00 | 72 | 1055.5 |
| 20260506122938 | 56 | 0 | 9.6 | 0.0 | 0.00 | 0.00 | 0.00 | 71 | 1055.5 |
| 20260506122832 | 56 | 0 | 7.0 | 0.0 | 0.00 | 0.00 | 0.00 | 71 | 1055.5 |
| 20260506122727 | 56 | 22 | 4.3 | 0.0 | 0.00 | 0.00 | 0.00 | 72 | 1055.5 |
| 20260506122622 | 56 | 0 | 4.3 | 0.0 | 0.00 | 0.00 | 0.00 | 71 | 1055.5 |
| 20260506122515 | 56 | 22 | 8.7 | 0.0 | 0.00 | 0.00 | 0.00 | 71 | 1055.5 |
| 20260506122402 | 56 | 67 | 7.0 | 0.0 | 0.00 | 0.00 | 0.00 | 72 | 1055.5 |
| 20260506122242 | 56 | 22 | 0.0 | 0.0 | 0.00 | 0.00 | 0.00 | 72 | 1055.4 |
| 20260506122135 | 56 | 67 | 8.7 | 0.0 | 0.00 | 0.00 | 0.00 | 71 | 1055.4 |
| 20260506122022 | 56 | 22 | 5.2 | 0.0 | 0.00 | 0.00 | 0.00 | 71 | 1055.4 |
| 20260506121910 | 56 | 67 | 5.2 | 0.0 | 0.00 | 0.00 | 0.00 | 70 | 1055.5 |
| 20260506121757 | 57 | 22 | 11.3 | 0.0 | 0.00 | 0.00 | 0.00 | 70 | 1055.4 |
| 20260506121653 | 57 | 45 | 10.4 | 0.0 | 0.00 | 0.00 | 0.00 | 70 | 1055.5 |
| 20260506121538 | 57 | 45 | 6.1 | 0.0 | 0.00 | 0.00 | 0.00 | 71 | 1055.4 |
| 20260506121424 | 57 | 22 | 5.2 | 0.0 | 0.00 | 0.00 | 0.00 | 71 | 1055.4 |
| 20260506121305 | 57 | 337 | 7.0 | 0.0 | 0.00 | 0.00 | 0.00 | 70 | 1055.4 |
| 20260506121158 | 57 | 67 | 10.4 | 0.0 | 0.00 | 0.00 | 0.00 | 70 | 1055.4 |
| 20260506121037 | 57 | 45 | 7.0 | 0.0 | 0.00 | 0.00 | 0.00 | 69 | 1055.4 |
| 20260506120916 | 57 | 45 | 11.3 | 0.0 | 0.00 | 0.00 | 0.00 | 68 | 1055.4 |
| 20260506120813 | 57 | 0 | 11.3 | 0.0 | 0.00 | 0.00 | 0.00 | 68 | 1055.3 |
| 20260506120658 | 58 | 45 | 5.2 | 0.0 | 0.00 | 0.00 | 0.00 | 69 | 1055.3 |
| 20260506120545 | 57 | 45 | 5.2 | 0.0 | 0.00 | 0.00 | 0.00 | 69 | 1055.3 |
| 20260506120431 | 57 | 337 | 5.2 | 0.0 | 0.00 | 0.00 | 0.00 | 70 | 1055.4 |
| 20260506120311 | 57 | 0 | 4.3 | 0.0 | 0.00 | 0.00 | 0.00 | 69 | 1055.2 |
| 20260506120207 | 57 | 22 | 7.0 | 0.0 | 0.00 | 0.00 | 0.00 | 69 | 1055.2 |
| 20260506120100 | 57 | 67 | 8.7 | 0.0 | 0.00 | 0.00 | 0.00 | 69 | 1055.2 |
| 20260506115948 | 57 | 45 | 7.0 | 0.0 | 0.00 | 0.00 | 0.00 | 69 | 1055.2 |
| 20260506115820 | 57 | 22 | 13.0 | 0.0 | 0.00 | 0.00 | 0.00 | 70 | 1055.2 |
| 20260506115715 | 57 | 0 | 11.3 | 0.0 | 0.00 | 0.00 | 0.00 | 69 | 1055.3 |
| 20260506115609 | 57 | 22 | 7.8 | 0.0 | 0.00 | 0.00 | 0.00 | 70 | 1055.3 |
| 20260506115505 | 57 | 45 | 10.4 | 0.0 | 0.00 | 0.00 | 0.00 | 70 | 1055.3 |
| 20260506115400 | 57 | 22 | 9.6 | 0.0 | 0.00 | 0.00 | 0.00 | 70 | 1055.2 |
| 20260506115253 | 57 | 45 | 11.3 | 0.0 | 0.00 | 0.00 | 0.00 | 69 | 1055.3 |
| 20260506115140 | 57 | 22 | 7.8 | 0.0 | 0.00 | 0.00 | 0.00 | 69 | 1055.3 |
| 20260506115035 | 57 | 337 | 4.3 | 0.0 | 0.00 | 0.00 | 0.00 | 68 | 1055.4 |
| 20260506114931 | 57 | 0 | 7.8 | 0.0 | 0.00 | 0.00 | 0.00 | 68 | 1055.3 |
| 20260506114824 | 58 | 0 | 5.2 | 0.0 | 0.00 | 0.00 | 0.00 | 68 | 1055.3 |
| 20260506114706 | 58 | 45 | 9.6 | 0.0 | 0.00 | 0.00 | 0.00 | 68 | 1055.3 |
| 20260506114558 | 58 | 0 | 14.8 | 0.0 | 0.00 | 0.00 | 0.00 | 68 | 1055.3 |
| 20260506114448 | 58 | 45 | 10.4 | 0.0 | 0.00 | 0.00 | 0.00 | 68 | 1055.3 |
| 20260506114340 | 58 | 292 | 6.1 | 0.0 | 0.00 | 0.00 | 0.00 | 68 | 1055.3 |
| 20260506114227 | 58 | 22 | 7.0 | 0.0 | 0.00 | 0.00 | 0.00 | 67 | 1055.3 |
| 20260506114122 | 58 | 22 | 7.0 | 0.0 | 0.00 | 0.00 | 0.00 | 66 | 1055.2 |
| 20260506114001 | 58 | 45 | 9.6 | 0.0 | 0.00 | 0.00 | 0.00 | 66 | 1055.2 |
| 20260506113840 | 58 | 67 | 6.1 | 0.0 | 0.00 | 0.00 | 0.00 | 65 | 1055.2 |
| 20260506113726 | 58 | 22 | 7.0 | 0.0 | 0.00 | 0.00 | 0.00 | 66 | 1055.2 |
| 20260506113605 | 58 | 67 | 5.2 | 0.0 | 0.00 | 0.00 | 0.00 | 66 | 1055.2 |
| 20260506113452 | 58 | 22 | 7.0 | 0.0 | 0.00 | 0.00 | 0.00 | 66 | 1055.3 |
| 20260506113347 | 58 | 67 | 6.1 | 0.0 | 0.00 | 0.00 | 0.00 | 65 | 1055.3 |
| 20260506113235 | 58 | 0 | 11.3 | 0.0 | 0.00 | 0.00 | 0.00 | 64 | 1055.3 |
| 20260506113128 | 58 | 45 | 7.8 | 0.0 | 0.00 | 0.00 | 0.00 | 65 | 1055.3 |
| 20260506113014 | 58 | 22 | 11.3 | 0.0 | 0.00 | 0.00 | 0.00 | 64 | 1055.3 |
| 20260506112902 | 58 | 22 | 13.0 | 0.0 | 0.00 | 0.00 | 0.00 | 64 | 1055.3 |
| 20260506112748 | 58 | 0 | 10.4 | 0.0 | 0.00 | 0.00 | 0.00 | 64 | 1055.3 |
| 20260506112627 | 58 | 22 | 10.4 | 0.0 | 0.00 | 0.00 | 0.00 | 64 | 1055.3 |
| 20260506112520 | 58 | 0 | 4.3 | 0.0 | 0.00 | 0.00 | 0.00 | 64 | 1055.3 |
| 20260506112409 | 58 | 45 | 12.2 | 0.0 | 0.00 | 0.00 | 0.00 | 64 | 1055.3 |
| 20260506112305 | 58 | 45 | 7.0 | 0.0 | 0.00 | 0.00 | 0.00 | 64 | 1055.3 |
| 20260506112149 | 58 | 22 | 5.2 | 0.0 | 0.00 | 0.00 | 0.00 | 63 | 1055.3 |
| 20260506112045 | 58 | 22 | 6.1 | 0.0 | 0.00 | 0.00 | 0.00 | 63 | 1055.3 |
| 20260506111939 | 58 | 0 | 3.5 | 0.0 | 0.00 | 0.00 | 0.00 | 63 | 1055.4 |
| 20260506111834 | 58 | 67 | 8.7 | 0.0 | 0.00 | 0.00 | 0.00 | 62 | 1055.3 |
| 20260506111712 | 58 | 0 | 10.4 | 0.0 | 0.00 | 0.00 | 0.00 | 62 | 1055.3 |
| 20260506111600 | 58 | 45 | 15.6 | 0.0 | 0.00 | 0.00 | 0.00 | 63 | 1055.4 |
| 20260506111447 | 58 | 0 | 5.2 | 0.0 | 0.00 | 0.00 | 0.00 | 63 | 1055.2 |
| 20260506111341 | 58 | 67 | 9.6 | 0.0 | 0.00 | 0.00 | 0.00 | 63 | 1055.3 |
| 20260506111237 | 58 | 22 | 3.5 | 0.0 | 0.00 | 0.00 | 0.00 | 62 | 1055.4 |
| 20260506111132 | 58 | 22 | 4.3 | 0.0 | 0.00 | 0.00 | 0.00 | 62 | 1055.3 |
| 20260506111025 | 58 | 22 | 7.0 | 0.0 | 0.00 | 0.00 | 0.00 | 62 | 1055.2 |
| 20260506110913 | 58 | 22 | 7.8 | 0.0 | 0.00 | 0.00 | 0.00 | 62 | 1055.3 |
| 20260506110752 | 58 | 337 | 7.8 | 0.0 | 0.00 | 0.00 | 0.00 | 62 | 1055.2 |
| 20260506110631 | 58 | 67 | 11.3 | 0.0 | 0.00 | 0.00 | 0.00 | 62 | 1055.3 |
| 20260506110517 | 57 | 67 | 13.0 | 0.0 | 0.00 | 0.00 | 0.00 | 61 | 1055.2 |
| 20260506110357 | 57 | 45 | 6.1 | 0.0 | 0.00 | 0.00 | 0.00 | 60 | 1055.3 |
| 20260506110251 | 57 | 22 | 15.6 | 0.0 | 0.00 | 0.00 | 0.00 | 61 | 1055.2 |
| 20260506110147 | 57 | 45 | 7.8 | 0.0 | 0.00 | 0.00 | 0.00 | 60 | 1055.3 |
| 20260506110042 | 57 | 67 | 10.4 | 0.0 | 0.00 | 0.00 | 0.00 | 61 | 1055.3 |
| 20260506105936 | 57 | 67 | 7.8 | 0.0 | 0.00 | 0.00 | 0.00 | 61 | 1055.3 |
| 20260506105815 | 57 | 45 | 9.6 | 0.0 | 0.00 | 0.00 | 0.00 | 62 | 1055.3 |
| 20260506105654 | 57 | 45 | 6.1 | 0.0 | 0.00 | 0.00 | 0.00 | 61 | 1055.2 |
| 20260506105549 | 57 | 90 | 6.1 | 0.0 | 0.00 | 0.00 | 0.00 | 61 | 1055.2 |
| 20260506105443 | 57 | 45 | 15.6 | 0.0 | 0.00 | 0.00 | 0.00 | 60 | 1055.2 |
| 20260506105330 | 57 | 45 | 10.4 | 0.0 | 0.00 | 0.00 | 0.00 | 61 | 1055.2 |
| 20260506105201 | 57 | 90 | 4.3 | 0.0 | 0.00 | 0.00 | 0.00 | 61 | 1055.2 |
| 20260506105048 | 57 | 67 | 9.6 | 0.0 | 0.00 | 0.00 | 0.00 | 60 | 1055.2 |
| 20260506104935 | 57 | 45 | 7.0 | 0.0 | 0.00 | 0.00 | 0.00 | 60 | 1055.2 |
| 20260506104814 | 57 | 22 | 8.7 | 0.0 | 0.00 | 0.00 | 0.00 | 61 | 1055.2 |
| 20260506104701 | 57 | 45 | 3.5 | 0.0 | 0.00 | 0.00 | 0.00 | 61 | 1055.2 |
| 20260506104548 | 57 | 22 | 6.1 | 0.0 | 0.00 | 0.00 | 0.00 | 63 | 1055.2 |
| 20260506104418 | 57 | 45 | 9.6 | 0.0 | 0.00 | 0.00 | 0.00 | 62 | 1055.2 |
| 20260506104257 | 57 | 67 | 6.1 | 0.0 | 0.00 | 0.00 | 0.00 | 62 | 1055.2 |
| 20260506104144 | 57 | 67 | 5.2 | 0.0 | 0.00 | 0.00 | 0.00 | 62 | 1055.2 |
| 20260506104039 | 57 | 45 | 8.7 | 0.0 | 0.00 | 0.00 | 0.00 | 63 | 1055.2 |
| 20260506103934 | 57 | 45 | 6.1 | 0.0 | 0.00 | 0.00 | 0.00 | 63 | 1055.2 |
| 20260506103830 | 57 | 90 | 4.3 | 0.0 | 0.00 | 0.00 | 0.00 | 63 | 1055.2 |
| 20260506103724 | 57 | 67 | 13.0 | 0.0 | 0.00 | 0.00 | 0.00 | 62 | 1055.2 |
| 20260506103610 | 57 | 45 | 9.6 | 0.0 | 0.00 | 0.00 | 0.00 | 62 | 1055.2 |
| 20260506103450 | 57 | 67 | 8.7 | 0.0 | 0.00 | 0.00 | 0.00 | 62 | 1055.3 |
| 20260506103337 | 57 | 67 | 4.3 | 0.0 | 0.00 | 0.00 | 0.00 | 62 | 1055.2 |
| 20260506103232 | 57 | 67 | 6.1 | 0.0 | 0.00 | 0.00 | 0.00 | 62 | 1055.2 |
| 20260506103126 | 57 | 45 | 6.1 | 0.0 | 0.00 | 0.00 | 0.00 | 62 | 1055.2 |
| 20260506103013 | 57 | 22 | 3.5 | 0.0 | 0.00 | 0.00 | 0.00 | 62 | 1055.2 |
| 20260506102900 | 57 | 112 | 7.0 | 0.0 | 0.00 | 0.00 | 0.00 | 64 | 1055.2 |
| 20260506102739 | 57 | 45 | 4.3 | 0.0 | 0.00 | 0.00 | 0.00 | 64 | 1055.2 |
| 20260506102626 | 57 | 45 | 4.3 | 0.0 | 0.00 | 0.00 | 0.00 | 63 | 1055.2 |
| 20260506102521 | 57 | 112 | 10.4 | 0.0 | 0.00 | 0.00 | 0.00 | 63 | 1055.2 |
| 20260506102408 | 57 | 67 | 10.4 | 0.0 | 0.00 | 0.00 | 0.00 | 62 | 1055.1 |
| 20260506102257 | 56 | 0 | 3.5 | 0.0 | 0.00 | 0.00 | 0.00 | 63 | 1055.1 |
| 20260506102150 | 56 | 67 | 7.0 | 0.0 | 0.00 | 0.00 | 0.00 | 64 | 1055.1 |
| 20260506102045 | 56 | 45 | 8.7 | 0.0 | 0.00 | 0.00 | 0.00 | 64 | 1055.2 |
| 20260506101940 | 56 | 67 | 2.6 | 0.0 | 0.00 | 0.00 | 0.00 | 64 | 1055.1 |
| 20260506101827 | 56 | 112 | 2.6 | 0.0 | 0.00 | 0.00 | 0.00 | 63 | 1055.1 |
| 20260506101722 | 56 | 45 | 7.0 | 0.0 | 0.00 | 0.00 | 0.00 | 65 | 1055.1 |
| 20260506101616 | 56 | 90 | 13.9 | 0.0 | 0.00 | 0.00 | 0.00 | 65 | 1055.1 |
| 20260506101511 | 56 | 90 | 8.7 | 0.0 | 0.00 | 0.00 | 0.00 | 66 | 1055.2 |
| 20260506101406 | 55 | 67 | 0.0 | 0.0 | 0.00 | 0.00 | 0.00 | 66 | 1055.2 |
| 20260506101255 | 55 | 90 | 5.2 | 0.0 | 0.00 | 0.00 | 0.00 | 66 | 1055.1 |
| 20260506101139 | 55 | 45 | 13.0 | 0.0 | 0.00 | 0.00 | 0.00 | 66 | 1055.1 |
| 20260506101029 | 55 | 112 | 6.1 | 0.0 | 0.00 | 0.00 | 0.00 | 66 | 1055.1 |
| 20260506100922 | 55 | 45 | 9.6 | 0.0 | 0.00 | 0.00 | 0.00 | 66 | 1055.1 |
| 20260506100802 | 55 | 90 | 6.1 | 0.0 | 0.00 | 0.00 | 0.00 | 66 | 1055.1 |
| 20260506100658 | 55 | 22 | 3.5 | 0.0 | 0.00 | 0.00 | 0.00 | 67 | 1055.1 |
| 20260506100550 | 55 | 22 | 7.0 | 0.0 | 0.00 | 0.00 | 0.00 | 67 | 1055.1 |
| 20260506100440 | 55 | 112 | 0.0 | 0.0 | 0.00 | 0.00 | 0.00 | 66 | 1055.1 |
| 20260506100332 | 55 | 22 | 12.2 | 0.0 | 0.00 | 0.00 | 0.00 | 66 | 1055.1 |
| 20260506100212 | 55 | 45 | 2.6 | 0.0 | 0.00 | 0.00 | 0.00 | 66 | 1055.1 |
| 20260506100058 | 55 | 45 | 8.7 | 0.0 | 0.00 | 0.00 | 0.00 | 66 | 1055.1 |
| 20260506095938 | 55 | 67 | 7.0 | 0.0 | 0.00 | 0.00 | 0.00 | 66 | 1055.1 |
| 20260506095832 | 55 | 67 | 7.8 | 0.0 | 0.00 | 0.00 | 0.00 | 66 | 1055.0 |
| 20260506095718 | 55 | 45 | 14.8 | 0.0 | 0.00 | 0.00 | 0.00 | 66 | 1055.0 |
| 20260506095606 | 55 | 0 | 7.0 | 0.0 | 0.00 | 0.00 | 0.00 | 66 | 1055.0 |
| 20260506095445 | 55 | 45 | 7.0 | 0.0 | 0.00 | 0.00 | 0.00 | 67 | 1055.1 |
| 20260506095332 | 55 | 112 | 7.0 | 0.0 | 0.00 | 0.00 | 0.00 | 67 | 1055.0 |
| 20260506095227 | 55 | 112 | 6.1 | 0.0 | 0.00 | 0.00 | 0.00 | 67 | 1055.0 |
| 20260506095122 | 55 | 67 | 7.8 | 0.0 | 0.00 | 0.00 | 0.00 | 67 | 1055.1 |
| 20260506095008 | 55 | 22 | 7.0 | 0.0 | 0.00 | 0.00 | 0.00 | 66 | 1055.0 |
| 20260506094855 | 55 | 45 | 10.4 | 0.0 | 0.00 | 0.00 | 0.00 | 67 | 1055.0 |
| 20260506094735 | 55 | 45 | 4.3 | 0.0 | 0.00 | 0.00 | 0.00 | 67 | 1055.0 |
| 20260506094630 | 55 | 90 | 2.6 | 0.0 | 0.00 | 0.00 | 0.00 | 68 | 1055.0 |
| 20260506094525 | 55 | 45 | 7.0 | 0.0 | 0.00 | 0.00 | 0.00 | 68 | 1055.0 |
| 20260506094411 | 55 | 22 | 12.2 | 0.0 | 0.00 | 0.00 | 0.00 | 68 | 1054.9 |
| 20260506094258 | 55 | 22 | 4.3 | 0.0 | 0.00 | 0.00 | 0.00 | 68 | 1055.0 |
| 20260506094146 | 55 | 67 | 4.3 | 0.0 | 0.00 | 0.00 | 0.00 | 67 | 1054.9 |
| 20260506094040 | 55 | 90 | 14.8 | 0.0 | 0.00 | 0.00 | 0.00 | 68 | 1054.8 |
| 20260506093927 | 55 | 0 | 7.8 | 0.0 | 0.00 | 0.00 | 0.00 | 68 | 1054.8 |
| 20260506093813 | 55 | 45 | 7.0 | 0.0 | 0.00 | 0.00 | 0.00 | 68 | 1054.8 |
| 20260506093700 | 55 | 67 | 5.2 | 0.0 | 0.00 | 0.00 | 0.00 | 68 | 1055.0 |
| 20260506093539 | 55 | 45 | 10.4 | 0.0 | 0.00 | 0.00 | 0.00 | 68 | 1054.9 |
| 20260506093426 | 55 | 0 | 3.5 | 0.0 | 0.00 | 0.00 | 0.00 | 67 | 1054.9 |
| 20260506093313 | 55 | 22 | 11.3 | 0.0 | 0.00 | 0.00 | 0.00 | 67 | 1054.9 |
| 20260506093201 | 55 | 22 | 7.8 | 0.0 | 0.00 | 0.00 | 0.00 | 67 | 1054.9 |
| 20260506093054 | 55 | 22 | 0.0 | 0.0 | 0.00 | 0.00 | 0.00 | 67 | 1055.0 |
| 20260506092942 | 55 | 112 | 7.8 | 0.0 | 0.00 | 0.00 | 0.00 | 67 | 1055.1 |
| 20260506092830 | 55 | 90 | 5.2 | 0.0 | 0.00 | 0.00 | 0.00 | 68 | 1055.0 |
| 20260506092723 | 55 | 90 | 3.5 | 0.0 | 0.00 | 0.00 | 0.00 | 68 | 1055.0 |
| 20260506092612 | 55 | 45 | 5.2 | 0.0 | 0.00 | 0.00 | 0.00 | 68 | 1055.0 |
| 20260506092505 | 55 | 45 | 4.3 | 0.0 | 0.00 | 0.00 | 0.00 | 67 | 1055.0 |
| 20260506092400 | 55 | 22 | 5.2 | 0.0 | 0.00 | 0.00 | 0.00 | 66 | 1055.0 |
| 20260506092250 | 55 | 45 | 8.7 | 0.0 | 0.00 | 0.00 | 0.00 | 66 | 1055.0 |
| 20260506092143 | 55 | 67 | 5.2 | 0.0 | 0.00 | 0.00 | 0.00 | 66 | 1055.0 |
| 20260506092029 | 55 | 90 | 6.1 | 0.0 | 0.00 | 0.00 | 0.00 | 67 | 1055.0 |
| 20260506091909 | 55 | 67 | 4.3 | 0.0 | 0.00 | 0.00 | 0.00 | 66 | 1055.0 |
| 20260506091805 | 55 | 67 | 7.8 | 0.0 | 0.00 | 0.00 | 0.00 | 66 | 1055.1 |
| 20260506091659 | 55 | 45 | 6.1 | 0.0 | 0.00 | 0.00 | 0.00 | 67 | 1055.0 |
| 20260506091552 | 55 | 67 | 1.7 | 0.0 | 0.00 | 0.00 | 0.00 | 67 | 1055.0 |
| 20260506091431 | 55 | 67 | 5.2 | 0.0 | 0.00 | 0.00 | 0.00 | 67 | 1055.0 |
| 20260506091309 | 55 | 90 | 13.0 | 0.0 | 0.00 | 0.00 | 0.00 | 66 | 1055.0 |
| 20260506091142 | 55 | 67 | 4.3 | 0.0 | 0.00 | 0.00 | 0.00 | 67 | 1055.0 |
| 20260506091037 | 55 | 67 | 6.1 | 0.0 | 0.00 | 0.00 | 0.00 | 67 | 1055.0 |
| 20260506090923 | 55 | 67 | 3.5 | 0.0 | 0.00 | 0.00 | 0.00 | 67 | 1054.9 |
| 20260506090801 | 55 | 90 | 6.1 | 0.0 | 0.00 | 0.00 | 0.00 | 66 | 1055.0 |
| 20260506090635 | 55 | 45 | 5.2 | 0.0 | 0.00 | 0.00 | 0.00 | 66 | 1054.9 |
| 20260506090527 | 55 | 112 | 11.3 | 0.0 | 0.00 | 0.00 | 0.00 | 66 | 1054.9 |
| 20260506090414 | 55 | 45 | 13.0 | 0.0 | 0.00 | 0.00 | 0.00 | 66 | 1054.9 |
| 20260506090301 | 55 | 67 | 3.5 | 0.0 | 0.00 | 0.00 | 0.00 | 66 | 1054.9 |
| 20260506090148 | 55 | 45 | 7.8 | 0.0 | 0.00 | 0.00 | 0.00 | 67 | 1055.0 |
| 20260506090037 | 55 | 45 | 6.1 | 0.0 | 0.00 | 0.00 | 0.00 | 66 | 1054.8 |
| 20260506085930 | 55 | 112 | 9.6 | 0.0 | 0.00 | 0.00 | 0.00 | 66 | 1055.0 |
| 20260506085810 | 55 | 45 | 9.6 | 0.0 | 0.00 | 0.00 | 0.00 | 66 | 1054.9 |
| 20260506085657 | 55 | 67 | 9.6 | 0.0 | 0.00 | 0.00 | 0.00 | 67 | 1054.8 |
| 20260506085551 | 55 | 112 | 10.4 | 0.0 | 0.00 | 0.00 | 0.00 | 67 | 1054.9 |
| 20260506085439 | 55 | 90 | 5.2 | 0.0 | 0.00 | 0.00 | 0.00 | 66 | 1054.9 |
| 20260506085335 | 55 | 67 | 5.2 | 0.0 | 0.00 | 0.00 | 0.00 | 67 | 1054.9 |
| 20260506085227 | 55 | 67 | 9.6 | 0.0 | 0.00 | 0.00 | 0.00 | 69 | 1054.9 |
| 20260506085106 | 55 | 90 | 4.3 | 0.0 | 0.00 | 0.00 | 0.00 | 68 | 1054.8 |
| 20260506084944 | 55 | 45 | 0.0 | 0.0 | 0.00 | 0.00 | 0.00 | 69 | 1054.9 |
| 20260506084832 | 55 | 90 | 6.1 | 0.0 | 0.00 | 0.00 | 0.00 | 68 | 1054.9 |
| 20260506084710 | 55 | 67 | 5.2 | 0.0 | 0.00 | 0.00 | 0.00 | 68 | 1054.9 |
| 20260506084550 | 55 | 90 | 6.1 | 0.0 | 0.00 | 0.00 | 0.00 | 68 | 1054.9 |
| 20260506084444 | 55 | 112 | 7.8 | 0.0 | 0.00 | 0.00 | 0.00 | 68 | 1054.9 |
| 20260506084317 | 55 | 67 | 5.2 | 0.0 | 0.00 | 0.00 | 0.00 | 69 | 1054.8 |
| 20260506084203 | 55 | 67 | 5.2 | 0.0 | 0.00 | 0.00 | 0.00 | 69 | 1054.9 |
| 20260506084048 | 55 | 90 | 7.8 | 0.0 | 0.00 | 0.00 | 0.00 | 69 | 1054.9 |
| 20260506083920 | 55 | 45 | 5.2 | 0.0 | 0.00 | 0.00 | 0.00 | 69 | 1054.9 |
| 20260506083815 | 55 | 45 | 10.4 | 0.0 | 0.00 | 0.00 | 0.00 | 69 | 1054.9 |
| 20260506083703 | 55 | 112 | 12.2 | 0.0 | 0.00 | 0.00 | 0.00 | 68 | 1055.0 |
| 20260506083548 | 55 | 67 | 7.0 | 0.0 | 0.00 | 0.00 | 0.00 | 69 | 1054.9 |
| 20260506083419 | 55 | 67 | 6.1 | 0.0 | 0.00 | 0.00 | 0.00 | 69 | 1054.9 |
| 20260506083257 | 55 | 67 | 13.9 | 0.0 | 0.00 | 0.00 | 0.00 | 70 | 1054.9 |
| 20260506083138 | 55 | 45 | 6.1 | 0.0 | 0.00 | 0.00 | 0.00 | 70 | 1055.0 |
| 20260506083031 | 55 | 90 | 0.0 | 0.0 | 0.00 | 0.00 | 0.00 | 71 | 1055.0 |
| 20260506082910 | 55 | 90 | 3.5 | 0.0 | 0.00 | 0.00 | 0.00 | 70 | 1055.0 |
| 20260506082757 | 55 | 112 | 4.3 | 0.0 | 0.00 | 0.00 | 0.00 | 70 | 1055.0 |
| 20260506082652 | 55 | 67 | 3.5 | 0.0 | 0.00 | 0.00 | 0.00 | 70 | 1054.9 |
| 20260506082539 | 55 | 67 | 9.6 | 0.0 | 0.00 | 0.00 | 0.00 | 70 | 1055.0 |
| 20260506082434 | 54 | 45 | 5.2 | 0.0 | 0.00 | 0.00 | 0.00 | 69 | 1054.9 |
| 20260506082320 | 55 | 67 | 6.1 | 0.0 | 0.00 | 0.00 | 0.00 | 69 | 1054.9 |
| 20260506082200 | 55 | 67 | 0.0 | 0.0 | 0.00 | 0.00 | 0.00 | 69 | 1054.9 |
| 20260506082046 | 55 | 45 | 5.2 | 0.0 | 0.00 | 0.00 | 0.00 | 69 | 1054.8 |
| 20260506081926 | 55 | 90 | 5.2 | 0.0 | 0.00 | 0.00 | 0.00 | 69 | 1054.8 |
| 20260506081820 | 55 | 67 | 10.4 | 0.0 | 0.00 | 0.00 | 0.00 | 69 | 1054.8 |
| 20260506081706 | 54 | 112 | 6.1 | 0.0 | 0.00 | 0.00 | 0.00 | 69 | 1054.8 |
| 20260506081545 | 54 | 90 | 13.0 | 0.0 | 0.00 | 0.00 | 0.00 | 69 | 1054.8 |
| 20260506081424 | 54 | 90 | 7.8 | 0.0 | 0.00 | 0.00 | 0.00 | 68 | 1054.8 |
| 20260506081256 | 54 | 45 | 10.4 | 0.0 | 0.00 | 0.00 | 0.00 | 68 | 1054.8 |
| 20260506081153 | 54 | 112 | 7.8 | 0.0 | 0.00 | 0.00 | 0.00 | 68 | 1054.8 |
| 20260506081045 | 54 | 112 | 7.0 | 0.0 | 0.00 | 0.00 | 0.00 | 68 | 1054.8 |
| 20260506080926 | 54 | 67 | 4.3 | 0.0 | 0.00 | 0.00 | 0.00 | 68 | 1054.8 |
| 20260506080812 | 54 | 45 | 7.0 | 0.0 | 0.00 | 0.00 | 0.00 | 68 | 1054.8 |
| 20260506080706 | 54 | 112 | 11.3 | 0.0 | 0.00 | 0.00 | 0.00 | 68 | 1054.8 |
| 20260506080555 | 54 | 90 | 7.0 | 0.0 | 0.00 | 0.00 | 0.00 | 68 | 1054.8 |
| 20260506080449 | 54 | 45 | 5.2 | 0.0 | 0.00 | 0.00 | 0.00 | 68 | 1054.8 |
| 20260506080342 | 54 | 45 | 9.6 | 0.0 | 0.00 | 0.00 | 0.00 | 68 | 1054.8 |
| 20260506080222 | 54 | 67 | 9.6 | 0.0 | 0.00 | 0.00 | 0.00 | 69 | 1054.9 |
| 20260506080110 | 54 | 90 | 6.1 | 0.0 | 0.00 | 0.00 | 0.00 | 68 | 1054.8 |
| 20260506073525 | 53 | 67 | 11.3 | 0.0 | 0.00 | 0.00 | 0.00 | 71 | 1054.6 |
| 20260506073419 | 53 | 67 | 9.6 | 0.0 | 0.00 | 0.00 | 0.00 | 71 | 1054.6 |
| 20260506073315 | 53 | 45 | 13.9 | 0.0 | 0.00 | 0.00 | 0.00 | 71 | 1054.6 |
| 20260506073209 | 53 | 67 | 6.1 | 0.0 | 0.00 | 0.00 | 0.00 | 71 | 1054.6 |
| 20260506073040 | 53 | 90 | 11.3 | 0.0 | 0.00 | 0.00 | 0.00 | 72 | 1054.5 |
| 20260506072927 | 53 | 90 | 15.6 | 0.0 | 0.00 | 0.00 | 0.00 | 72 | 1054.6 |
| 20260506072814 | 53 | 67 | 6.1 | 0.0 | 0.00 | 0.00 | 0.00 | 72 | 1054.6 |
| 20260506072703 | 53 | 45 | 7.8 | 0.0 | 0.00 | 0.00 | 0.00 | 73 | 1054.5 |
| 20260506072555 | 53 | 45 | 6.1 | 0.0 | 0.00 | 0.00 | 0.00 | 72 | 1054.6 |
| 20260506072434 | 53 | 45 | 4.3 | 0.0 | 0.00 | 0.00 | 0.00 | 72 | 1054.6 |
| 20260506072321 | 53 | 67 | 5.2 | 0.0 | 0.00 | 0.00 | 0.00 | 73 | 1054.5 |
| 20260506072208 | 54 | 45 | 7.0 | 0.0 | 0.00 | 0.00 | 0.00 | 73 | 1054.6 |
| 20260506072055 | 54 | 112 | 7.0 | 0.0 | 0.00 | 0.00 | 0.00 | 72 | 1054.6 |
| 20260506071941 | 54 | 45 | 8.7 | 0.0 | 0.00 | 0.00 | 0.00 | 72 | 1054.6 |
| 20260506071812 | 54 | 45 | 7.8 | 0.0 | 0.00 | 0.00 | 0.00 | 71 | 1054.6 |
| 20260506071651 | 54 | 45 | 7.0 | 0.0 | 0.00 | 0.00 | 0.00 | 72 | 1054.6 |
| 20260506071540 | 54 | 90 | 3.5 | 0.0 | 0.00 | 0.00 | 0.00 | 72 | 1054.6 |
| 20260506071434 | 55 | 45 | 4.3 | 0.0 | 0.00 | 0.00 | 0.00 | 72 | 1054.6 |
| 20260506071318 | 55 | 90 | 7.0 | 0.0 | 0.00 | 0.00 | 0.00 | 72 | 1054.6 |
| 20260506071206 | 55 | 90 | 6.1 | 0.0 | 0.00 | 0.00 | 0.00 | 72 | 1054.6 |
| 20260506071044 | 55 | 112 | 5.2 | 0.0 | 0.00 | 0.00 | 0.00 | 72 | 1054.6 |
| 20260506070923 | 55 | 45 | 9.6 | 0.0 | 0.00 | 0.00 | 0.00 | 72 | 1054.6 |
| 20260506070801 | 56 | 90 | 2.6 | 0.0 | 0.00 | 0.00 | 0.00 | 71 | 1054.6 |
| 20260506070640 | 56 | 112 | 11.3 | 0.0 | 0.00 | 0.00 | 0.00 | 71 | 1054.6 |
| 20260506070534 | 56 | 67 | 10.4 | 0.0 | 0.00 | 0.00 | 0.00 | 72 | 1054.6 |
| 20260506070420 | 56 | 45 | 10.4 | 0.0 | 0.00 | 0.00 | 0.00 | 72 | 1054.6 |
| 20260506070307 | 56 | 67 | 8.7 | 0.0 | 0.00 | 0.00 | 0.00 | 73 | 1054.6 |
| 20260506070202 | 55 | 90 | 5.2 | 0.0 | 0.00 | 0.00 | 0.00 | 72 | 1054.5 |
| 20260506062354 | 53 | 90 | 6.1 | 0.0 | 0.00 | 0.00 | 0.00 | 82 | 1054.4 |
| 20260506062242 | 53 | 45 | 6.1 | 0.0 | 0.00 | 0.00 | 0.00 | 82 | 1054.4 |
| 20260506062130 | 53 | 22 | 11.3 | 0.0 | 0.00 | 0.00 | 0.00 | 83 | 1054.4 |
| 20260506062016 | 53 | 90 | 2.6 | 0.0 | 0.00 | 0.00 | 0.00 | 83 | 1054.4 |
| 20260506061854 | 53 | 45 | 3.5 | 0.0 | 0.00 | 0.00 | 0.00 | 83 | 1054.3 |
| 20260506061724 | 53 | 112 | 0.9 | 0.0 | 0.00 | 0.00 | 0.00 | 84 | 1054.4 |
| 20260506061610 | 53 | 45 | 5.2 | 0.0 | 0.00 | 0.00 | 0.00 | 84 | 1054.4 |
| 20260506061504 | 53 | 22 | 6.1 | 0.0 | 0.00 | 0.00 | 0.00 | 84 | 1054.4 |
| 20260506061349 | 52 | 67 | 4.3 | 0.0 | 0.00 | 0.00 | 0.00 | 84 | 1054.4 |
| 20260506061228 | 52 | 22 | 5.2 | 0.0 | 0.00 | 0.00 | 0.00 | 85 | 1054.4 |
| 20260506061059 | 52 | 67 | 7.0 | 0.0 | 0.00 | 0.00 | 0.00 | 85 | 1054.3 |
| 20260506060946 | 52 | 22 | 4.3 | 0.0 | 0.00 | 0.00 | 0.00 | 85 | 1054.3 |
| 20260506060832 | 52 | 45 | 2.6 | 0.0 | 0.00 | 0.00 | 0.00 | 85 | 1054.3 |
| 20260506060714 | 52 | 22 | 5.2 | 0.0 | 0.00 | 0.00 | 0.00 | 85 | 1054.3 |
| 20260506060601 | 52 | 0 | 7.8 | 0.0 | 0.00 | 0.00 | 0.00 | 85 | 1054.3 |
| 20260506060453 | 52 | 45 | 6.1 | 0.0 | 0.00 | 0.00 | 0.00 | 86 | 1054.3 |
| 20260506060333 | 52 | 112 | 6.1 | 0.0 | 0.00 | 0.00 | 0.00 | 86 | 1054.4 |
| 20260506060218 | 52 | 90 | 3.5 | 0.0 | 0.00 | 0.00 | 0.00 | 86 | 1054.4 |
| 20260506051327 | 50 | 45 | 3.5 | 0.0 | 0.00 | 0.00 | 0.00 | 90 | 1054.3 |
| 20260506051208 | 50 | 67 | 3.5 | 0.0 | 0.00 | 0.00 | 0.00 | 90 | 1054.3 |
| 20260506051052 | 50 | 45 | 5.2 | 0.0 | 0.00 | 0.00 | 0.00 | 91 | 1054.3 |
| 20260506050939 | 50 | 45 | 8.7 | 0.0 | 0.00 | 0.00 | 0.00 | 91 | 1054.3 |
| 20260506050817 | 49 | 45 | 6.1 | 0.0 | 0.00 | 0.00 | 0.00 | 91 | 1054.3 |
| 20260506050656 | 49 | 45 | 2.6 | 0.0 | 0.00 | 0.00 | 0.00 | 91 | 1054.3 |
| 20260506050545 | 49 | 90 | 6.1 | 0.0 | 0.00 | 0.00 | 0.00 | 91 | 1054.3 |
| 20260506050438 | 49 | 45 | 7.0 | 0.0 | 0.00 | 0.00 | 0.00 | 91 | 1054.3 |
| 20260506050318 | 49 | 22 | 4.3 | 0.0 | 0.00 | 0.00 | 0.00 | 91 | 1054.3 |
| 20260506050204 | 49 | 22 | 2.6 | 0.0 | 0.00 | 0.00 | 0.00 | 91 | 1054.3 |
| 20260506045033 | 49 | 45 | 0.0 | 0.0 | 0.00 | 0.00 | 0.00 | 91 | 1054.4 |
| 20260506044912 | 49 | 45 | 7.8 | 0.0 | 0.00 | 0.00 | 0.00 | 91 | 1054.4 |
| 20260506044759 | 48 | 22 | 5.2 | 0.0 | 0.00 | 0.00 | 0.00 | 91 | 1054.4 |
| 20260506044639 | 49 | 67 | 1.7 | 0.0 | 0.00 | 0.00 | 0.00 | 91 | 1054.4 |
| 20260506044535 | 49 | 22 | 7.8 | 0.0 | 0.00 | 0.00 | 0.00 | 91 | 1054.5 |
| 20260506044429 | 48 | 67 | 0.0 | 0.0 | 0.00 | 0.00 | 0.00 | 91 | 1054.5 |
| 20260506044315 | 48 | 67 | 4.3 | 0.0 | 0.00 | 0.00 | 0.00 | 91 | 1054.5 |
| 20260506044202 | 48 | 67 | 5.2 | 0.0 | 0.00 | 0.00 | 0.00 | 92 | 1054.4 |
| 20260506044057 | 48 | 45 | 5.2 | 0.0 | 0.00 | 0.00 | 0.00 | 92 | 1054.4 |
| 20260506043954 | 48 | 45 | 5.2 | 0.0 | 0.00 | 0.00 | 0.00 | 92 | 1054.3 |
| 20260506043838 | 48 | 90 | 2.6 | 0.0 | 0.00 | 0.00 | 0.00 | 92 | 1054.4 |
| 20260506043725 | 48 | 67 | 3.5 | 0.0 | 0.00 | 0.00 | 0.00 | 92 | 1054.4 |
| 20260506043605 | 48 | 45 | 3.5 | 0.0 | 0.00 | 0.00 | 0.00 | 92 | 1054.4 |
| 20260506043500 | 48 | 45 | 5.2 | 0.0 | 0.00 | 0.00 | 0.00 | 92 | 1054.3 |
| 20260506043355 | 48 | 67 | 6.1 | 0.0 | 0.00 | 0.00 | 0.00 | 92 | 1054.3 |
| 20260506043250 | 48 | 45 | 5.2 | 0.0 | 0.00 | 0.00 | 0.00 | 92 | 1054.3 |
| 20260506043143 | 48 | 67 | 5.2 | 0.0 | 0.00 | 0.00 | 0.00 | 91 | 1054.3 |
| 20260506043025 | 48 | 67 | 3.5 | 0.0 | 0.00 | 0.00 | 0.00 | 91 | 1054.3 |
| 20260506042910 | 48 | 90 | 4.3 | 0.0 | 0.00 | 0.00 | 0.00 | 91 | 1054.4 |
| 20260506042758 | 48 | 67 | 1.7 | 0.0 | 0.00 | 0.00 | 0.00 | 91 | 1054.4 |
| 20260506042651 | 48 | 67 | 4.3 | 0.0 | 0.00 | 0.00 | 0.00 | 91 | 1054.4 |
| 20260506042533 | 48 | 67 | 3.5 | 0.0 | 0.00 | 0.00 | 0.00 | 91 | 1054.4 |
| 20260506042425 | 48 | 67 | 2.6 | 0.0 | 0.00 | 0.00 | 0.00 | 92 | 1054.4 |
| 20260506042313 | 48 | 22 | 3.5 | 0.0 | 0.00 | 0.00 | 0.00 | 92 | 1054.4 |
| 20260506042159 | 48 | 22 | 7.0 | 0.0 | 0.00 | 0.00 | 0.00 | 92 | 1054.4 |
| 20260506042048 | 48 | 45 | 4.3 | 0.0 | 0.00 | 0.00 | 0.00 | 92 | 1054.3 |
| 20260506041933 | 48 | 45 | 4.3 | 0.0 | 0.00 | 0.00 | 0.00 | 92 | 1054.5 |
| 20260506041812 | 48 | 45 | 3.5 | 0.0 | 0.00 | 0.00 | 0.00 | 92 | 1054.3 |
| 20260506041659 | 48 | 67 | 6.1 | 0.0 | 0.00 | 0.00 | 0.00 | 92 | 1054.4 |
| 20260506041546 | 48 | 45 | 0.0 | 0.0 | 0.00 | 0.00 | 0.00 | 92 | 1054.4 |
| 20260506041443 | 48 | 45 | 4.3 | 0.0 | 0.00 | 0.00 | 0.00 | 92 | 1054.3 |
| 20260506041330 | 48 | 22 | 8.7 | 0.0 | 0.00 | 0.00 | 0.00 | 92 | 1054.3 |
| 20260506041223 | 48 | 67 | 5.2 | 0.0 | 0.00 | 0.00 | 0.00 | 92 | 1054.3 |
| 20260506041117 | 48 | 45 | 1.7 | 0.0 | 0.00 | 0.00 | 0.00 | 92 | 1054.2 |
| 20260506041004 | 48 | 45 | 0.0 | 0.0 | 0.00 | 0.00 | 0.00 | 92 | 1054.4 |
| 20260506040847 | 48 | 67 | 0.0 | 0.0 | 0.00 | 0.00 | 0.00 | 92 | 1054.3 |
| 20260506040739 | 48 | 67 | 3.5 | 0.0 | 0.00 | 0.00 | 0.00 | 92 | 1054.3 |
| 20260506040633 | 48 | 67 | 7.8 | 0.0 | 0.00 | 0.00 | 0.00 | 92 | 1054.2 |
| 20260506040519 | 48 | 45 | 5.2 | 0.0 | 0.00 | 0.00 | 0.00 | 92 | 1054.3 |
| 20260506040359 | 48 | 67 | 5.2 | 0.0 | 0.00 | 0.00 | 0.00 | 92 | 1054.3 |
| 20260506040237 | 47 | 45 | 8.7 | 0.0 | 0.00 | 0.00 | 0.00 | 92 | 1054.3 |
| 20260506040126 | 48 | 45 | 5.2 | 0.0 | 0.00 | 0.00 | 0.00 | 92 | 1054.3 |
| 20260506040019 | 48 | 45 | 7.8 | 0.0 | 0.00 | 0.00 | 0.00 | 92 | 1054.3 |
| 20260506035906 | 48 | 45 | 6.1 | 0.0 | 0.00 | 0.00 | 0.00 | 92 | 1054.2 |
| 20260506035748 | 47 | 45 | 3.5 | 0.0 | 0.00 | 0.00 | 0.00 | 92 | 1054.4 |
| 20260506035640 | 48 | 45 | 7.0 | 0.0 | 0.00 | 0.00 | 0.00 | 92 | 1054.3 |
| 20260506035521 | 48 | 45 | 1.7 | 0.0 | 0.00 | 0.00 | 0.00 | 92 | 1054.3 |
| 20260506035413 | 48 | 45 | 6.1 | 0.0 | 0.00 | 0.00 | 0.00 | 92 | 1054.4 |
| 20260506035253 | 47 | 22 | 6.1 | 0.0 | 0.00 | 0.00 | 0.00 | 92 | 1054.3 |
| 20260506035150 | 47 | 67 | 0.0 | 0.0 | 0.00 | 0.00 | 0.00 | 92 | 1054.4 |
| 20260506035041 | 47 | 45 | 8.7 | 0.0 | 0.00 | 0.00 | 0.00 | 92 | 1054.3 |
| 20260506034930 | 48 | 90 | 3.5 | 0.0 | 0.00 | 0.00 | 0.00 | 92 | 1054.4 |
| 20260506034823 | 47 | 45 | 7.8 | 0.0 | 0.00 | 0.00 | 0.00 | 92 | 1054.4 |
| 20260506034703 | 47 | 45 | 0.9 | 0.0 | 0.00 | 0.00 | 0.00 | 92 | 1054.4 |
| 20260506034552 | 47 | 67 | 2.6 | 0.0 | 0.00 | 0.00 | 0.00 | 92 | 1054.5 |
| 20260506034445 | 47 | 45 | 3.5 | 0.0 | 0.00 | 0.00 | 0.00 | 92 | 1054.4 |
| 20260506034331 | 47 | 90 | 6.1 | 0.0 | 0.00 | 0.00 | 0.00 | 92 | 1054.5 |
| 20260506034203 | 47 | 90 | 6.1 | 0.0 | 0.00 | 0.00 | 0.00 | 92 | 1054.4 |
| 20260506034058 | 47 | 67 | 5.2 | 0.0 | 0.00 | 0.00 | 0.00 | 92 | 1054.4 |
| 20260506033944 | 47 | 90 | 0.0 | 0.0 | 0.00 | 0.00 | 0.00 | 92 | 1054.5 |
| 20260506033815 | 47 | 67 | 3.5 | 0.0 | 0.00 | 0.00 | 0.00 | 92 | 1054.4 |
| 20260506033701 | 47 | 112 | 2.6 | 0.0 | 0.00 | 0.00 | 0.00 | 92 | 1054.3 |
| 20260506033533 | 47 | 67 | 1.7 | 0.0 | 0.00 | 0.00 | 0.00 | 92 | 1054.3 |
| 20260506033430 | 47 | 90 | 4.3 | 0.0 | 0.00 | 0.00 | 0.00 | 92 | 1054.4 |
| 20260506033322 | 47 | 67 | 6.1 | 0.0 | 0.00 | 0.00 | 0.00 | 92 | 1054.4 |
| 20260506033201 | 47 | 45 | 5.2 | 0.0 | 0.00 | 0.00 | 0.00 | 92 | 1054.4 |
| 20260506033048 | 47 | 90 | 0.9 | 0.0 | 0.00 | 0.00 | 0.00 | 92 | 1054.5 |
| 20260506032938 | 47 | 90 | 0.0 | 0.0 | 0.00 | 0.00 | 0.00 | 92 | 1054.4 |
| 20260506032832 | 47 | 67 | 5.2 | 0.0 | 0.00 | 0.00 | 0.00 | 92 | 1054.5 |
| 20260506032725 | 47 | 45 | 5.2 | 0.0 | 0.00 | 0.00 | 0.00 | 92 | 1054.4 |
| 20260506032613 | 48 | 67 | 7.0 | 0.0 | 0.00 | 0.00 | 0.00 | 92 | 1054.4 |
| 20260506032507 | 48 | 112 | 7.0 | 0.0 | 0.00 | 0.00 | 0.00 | 92 | 1054.4 |
| 20260506032354 | 47 | 67 | 3.5 | 0.0 | 0.00 | 0.00 | 0.00 | 92 | 1054.5 |
| 20260506032241 | 47 | 67 | 5.2 | 0.0 | 0.00 | 0.00 | 0.00 | 92 | 1054.4 |
| 20260506032138 | 47 | 90 | 6.1 | 0.0 | 0.00 | 0.00 | 0.00 | 92 | 1054.5 |
| 20260506032030 | 47 | 45 | 7.0 | 0.0 | 0.00 | 0.00 | 0.00 | 92 | 1054.4 |
| 20260506031910 | 48 | 45 | 6.1 | 0.0 | 0.00 | 0.00 | 0.00 | 92 | 1054.6 |
| 20260506031758 | 48 | 67 | 0.0 | 0.0 | 0.00 | 0.00 | 0.00 | 92 | 1054.6 |
| 20260506031643 | 47 | 45 | 0.0 | 0.0 | 0.00 | 0.00 | 0.00 | 92 | 1054.6 |
| 20260506031523 | 47 | 22 | 6.1 | 0.0 | 0.00 | 0.00 | 0.00 | 92 | 1054.6 |
| 20260506031416 | 47 | 45 | 3.5 | 0.0 | 0.00 | 0.00 | 0.00 | 92 | 1054.6 |
| 20260506031255 | 47 | 45 | 4.3 | 0.0 | 0.00 | 0.00 | 0.00 | 92 | 1054.6 |
| 20260506031134 | 47 | 45 | 6.1 | 0.0 | 0.00 | 0.00 | 0.00 | 92 | 1054.5 |
| 20260506031020 | 47 | 67 | 0.0 | 0.0 | 0.00 | 0.00 | 0.00 | 92 | 1054.6 |
| 20260506030908 | 47 | 45 | 6.1 | 0.0 | 0.00 | 0.00 | 0.00 | 91 | 1054.6 |
| 20260506030757 | 47 | 45 | 2.6 | 0.0 | 0.00 | 0.00 | 0.00 | 91 | 1054.5 |
| 20260506030650 | 47 | 45 | 4.3 | 0.0 | 0.00 | 0.00 | 0.00 | 91 | 1054.5 |
| 20260506030522 | 47 | 22 | 4.3 | 0.0 | 0.00 | 0.00 | 0.00 | 91 | 1054.6 |
| 20260506030407 | 47 | 67 | 2.6 | 0.0 | 0.00 | 0.00 | 0.00 | 91 | 1054.6 |
| 20260506030255 | 47 | 45 | 5.2 | 0.0 | 0.00 | 0.00 | 0.00 | 91 | 1054.5 |
| 20260506030149 | 46 | 45 | 3.5 | 0.0 | 0.00 | 0.00 | 0.00 | 91 | 1054.5 |
| 20260506030037 | 46 | 45 | 1.7 | 0.0 | 0.00 | 0.00 | 0.00 | 91 | 1054.7 |
| 20260506025915 | 46 | 22 | 3.5 | 0.0 | 0.00 | 0.00 | 0.00 | 91 | 1054.5 |
| 20260506025802 | 46 | 45 | 3.5 | 0.0 | 0.00 | 0.00 | 0.00 | 91 | 1054.6 |
| 20260506025649 | 46 | 45 | 0.0 | 0.0 | 0.00 | 0.00 | 0.00 | 91 | 1054.6 |
| 20260506025527 | 46 | 67 | 1.7 | 0.0 | 0.00 | 0.00 | 0.00 | 91 | 1054.6 |
| 20260506025407 | 46 | 45 | 3.5 | 0.0 | 0.00 | 0.00 | 0.00 | 91 | 1054.7 |
| 20260506025301 | 46 | 45 | 0.0 | 0.0 | 0.00 | 0.00 | 0.00 | 91 | 1054.7 |
| 20260506025132 | 46 | 45 | 0.0 | 0.0 | 0.00 | 0.00 | 0.00 | 91 | 1054.7 |
| 20260506024858 | 46 | 45 | 0.0 | 0.0 | 0.00 | 0.00 | 0.00 | 91 | 1054.7 |
| 20260506024744 | 46 | 45 | 0.0 | 0.0 | 0.00 | 0.00 | 0.00 | 91 | 1054.7 |
| 20260506024626 | 46 | 45 | 0.0 | 0.0 | 0.00 | 0.00 | 0.00 | 91 | 1054.8 |
| 20260506024519 | 46 | 45 | 3.5 | 0.0 | 0.00 | 0.00 | 0.00 | 91 | 1054.8 |
| 20260506024408 | 46 | 45 | 0.0 | 0.0 | 0.00 | 0.00 | 0.00 | 91 | 1054.7 |
| 20260506024300 | 46 | 45 | 0.0 | 0.0 | 0.00 | 0.00 | 0.00 | 91 | 1054.8 |
| 20260506024147 | 46 | 45 | 0.0 | 0.0 | 0.00 | 0.00 | 0.00 | 90 | 1054.7 |
| 20260506024042 | 46 | 45 | 0.0 | 0.0 | 0.00 | 0.00 | 0.00 | 90 | 1054.7 |
| 20260506023921 | 46 | 45 | 0.0 | 0.0 | 0.00 | 0.00 | 0.00 | 90 | 1054.8 |
| 20260506023807 | 46 | 67 | 2.6 | 0.0 | 0.00 | 0.00 | 0.00 | 90 | 1054.7 |
| 20260506023654 | 46 | 45 | 4.3 | 0.0 | 0.00 | 0.00 | 0.00 | 90 | 1054.7 |
| 20260506023541 | 46 | 45 | 2.6 | 0.0 | 0.00 | 0.00 | 0.00 | 90 | 1054.7 |
| 20260506023420 | 46 | 45 | 0.0 | 0.0 | 0.00 | 0.00 | 0.00 | 90 | 1054.7 |
| 20260506023307 | 46 | 45 | 0.0 | 0.0 | 0.00 | 0.00 | 0.00 | 90 | 1054.8 |
| 20260506023155 | 46 | 45 | 0.0 | 0.0 | 0.00 | 0.00 | 0.00 | 90 | 1054.8 |
| 20260506023049 | 46 | 45 | 2.6 | 0.0 | 0.00 | 0.00 | 0.00 | 90 | 1054.8 |
| 20260506022938 | 46 | 45 | 0.0 | 0.0 | 0.00 | 0.00 | 0.00 | 90 | 1054.8 |
| 20260506022830 | 46 | 45 | 0.0 | 0.0 | 0.00 | 0.00 | 0.00 | 90 | 1054.7 |
| 20260506022709 | 46 | 45 | 3.5 | 0.0 | 0.00 | 0.00 | 0.00 | 90 | 1054.7 |
| 20260506022557 | 46 | 45 | 1.7 | 0.0 | 0.00 | 0.00 | 0.00 | 90 | 1054.7 |
| 20260506022444 | 46 | 45 | 2.6 | 0.0 | 0.00 | 0.00 | 0.00 | 90 | 1054.6 |
| 20260506022330 | 46 | 45 | 3.5 | 0.0 | 0.00 | 0.00 | 0.00 | 90 | 1054.7 |
| 20260506022217 | 46 | 67 | 1.7 | 0.0 | 0.00 | 0.00 | 0.00 | 90 | 1054.7 |
| 20260506022105 | 46 | 67 | 3.5 | 0.0 | 0.00 | 0.00 | 0.00 | 90 | 1054.7 |
| 20260506021959 | 46 | 45 | 1.7 | 0.0 | 0.00 | 0.00 | 0.00 | 90 | 1054.8 |
| 20260506021837 | 46 | 45 | 4.3 | 0.0 | 0.00 | 0.00 | 0.00 | 90 | 1054.6 |
| 20260506021724 | 46 | 45 | 2.6 | 0.0 | 0.00 | 0.00 | 0.00 | 90 | 1054.8 |
| 20260506021603 | 47 | 45 | 1.7 | 0.0 | 0.00 | 0.00 | 0.00 | 90 | 1054.7 |
| 20260506021451 | 46 | 45 | 3.5 | 0.0 | 0.00 | 0.00 | 0.00 | 90 | 1054.7 |
| 20260506021345 | 47 | 67 | 1.7 | 0.0 | 0.00 | 0.00 | 0.00 | 90 | 1054.6 |
| 20260506021224 | 47 | 45 | 2.6 | 0.0 | 0.00 | 0.00 | 0.00 | 90 | 1054.7 |
| 20260506021110 | 47 | 45 | 4.3 | 0.0 | 0.00 | 0.00 | 0.00 | 90 | 1054.7 |
| 20260506020950 | 47 | 45 | 0.0 | 0.0 | 0.00 | 0.00 | 0.00 | 90 | 1054.7 |
| 20260506020844 | 47 | 45 | 3.5 | 0.0 | 0.00 | 0.00 | 0.00 | 90 | 1054.8 |
| 20260506020731 | 47 | 45 | 1.7 | 0.0 | 0.00 | 0.00 | 0.00 | 90 | 1054.8 |
| 20260506020610 | 47 | 45 | 2.6 | 0.0 | 0.00 | 0.00 | 0.00 | 90 | 1054.8 |
| 20260506020448 | 47 | 67 | 2.6 | 0.0 | 0.00 | 0.00 | 0.00 | 90 | 1054.8 |
| 20260506020338 | 47 | 45 | 0.0 | 0.0 | 0.00 | 0.00 | 0.00 | 90 | 1054.8 |
| 20260506020231 | 47 | 67 | 0.0 | 0.0 | 0.00 | 0.00 | 0.00 | 90 | 1054.9 |
| 20260506020110 | 47 | 45 | 3.5 | 0.0 | 0.00 | 0.00 | 0.00 | 90 | 1054.8 |
| 20260506020005 | 47 | 45 | 5.2 | 0.0 | 0.00 | 0.00 | 0.00 | 90 | 1054.9 |
| 20260506015852 | 47 | 67 | 1.7 | 0.0 | 0.00 | 0.00 | 0.00 | 90 | 1054.8 |
| 20260506015748 | 47 | 67 | 0.0 | 0.0 | 0.00 | 0.00 | 0.00 | 90 | 1054.8 |
| 20260506015641 | 47 | 45 | 0.0 | 0.0 | 0.00 | 0.00 | 0.00 | 90 | 1054.9 |
| 20260506015520 | 47 | 45 | 3.5 | 0.0 | 0.00 | 0.00 | 0.00 | 90 | 1054.7 |
| 20260506015407 | 47 | 45 | 5.2 | 0.0 | 0.00 | 0.00 | 0.00 | 90 | 1054.8 |
| 20260506015305 | 47 | 67 | 0.0 | 0.0 | 0.00 | 0.00 | 0.00 | 90 | 1054.9 |
| 20260506015149 | 47 | 45 | 0.0 | 0.0 | 0.00 | 0.00 | 0.00 | 90 | 1054.9 |
| 20260506015027 | 47 | 67 | 0.0 | 0.0 | 0.00 | 0.00 | 0.00 | 90 | 1054.9 |
| 20260506014915 | 47 | 67 | 0.0 | 0.0 | 0.00 | 0.00 | 0.00 | 90 | 1054.8 |
| 20260506014809 | 47 | 67 | 0.0 | 0.0 | 0.00 | 0.00 | 0.00 | 90 | 1054.9 |
| 20260506014649 | 47 | 90 | 0.0 | 0.0 | 0.00 | 0.00 | 0.00 | 90 | 1054.9 |
| 20260506014536 | 47 | 45 | 1.7 | 0.0 | 0.00 | 0.00 | 0.00 | 90 | 1054.8 |
| 20260506014430 | 47 | 45 | 0.0 | 0.0 | 0.00 | 0.00 | 0.00 | 90 | 1054.8 |
| 20260506014316 | 47 | 90 | 2.6 | 0.0 | 0.00 | 0.00 | 0.00 | 90 | 1054.8 |
| 20260506014147 | 47 | 45 | 3.5 | 0.0 | 0.00 | 0.00 | 0.00 | 90 | 1054.9 |
| 20260506014030 | 47 | 90 | 0.0 | 0.0 | 0.00 | 0.00 | 0.00 | 90 | 1054.8 |
| 20260506013918 | 47 | 90 | 1.7 | 0.0 | 0.00 | 0.00 | 0.00 | 90 | 1054.8 |
| 20260506013658 | 48 | 45 | 0.0 | 0.0 | 0.00 | 0.00 | 0.00 | 90 | 1054.9 |
| 20260506013552 | 48 | 67 | 0.0 | 0.0 | 0.00 | 0.00 | 0.00 | 91 | 1054.8 |
| 20260506013438 | 48 | 45 | 3.5 | 0.0 | 0.00 | 0.00 | 0.00 | 91 | 1054.8 |
| 20260506013324 | 48 | 45 | 3.5 | 0.0 | 0.00 | 0.00 | 0.00 | 91 | 1054.8 |
| 20260506013211 | 48 | 45 | 4.3 | 0.0 | 0.00 | 0.00 | 0.00 | 91 | 1054.8 |
| 20260506013049 | 48 | 45 | 0.0 | 0.0 | 0.00 | 0.00 | 0.00 | 91 | 1054.8 |
| 20260506012928 | 48 | 45 | 0.0 | 0.0 | 0.00 | 0.00 | 0.00 | 91 | 1054.8 |
| 20260506012808 | 48 | 90 | 3.5 | 0.0 | 0.00 | 0.00 | 0.00 | 91 | 1054.8 |
| 20260506012702 | 48 | 45 | 2.6 | 0.0 | 0.00 | 0.00 | 0.00 | 91 | 1054.9 |
| 20260506012549 | 48 | 67 | 1.7 | 0.0 | 0.00 | 0.00 | 0.00 | 91 | 1054.9 |
| 20260506012436 | 48 | 90 | 0.0 | 0.0 | 0.00 | 0.00 | 0.00 | 90 | 1054.9 |
| 20260506012333 | 48 | 90 | 0.0 | 0.0 | 0.00 | 0.00 | 0.00 | 91 | 1054.9 |
| 20260506012228 | 48 | 90 | 0.0 | 0.0 | 0.00 | 0.00 | 0.00 | 90 | 1054.9 |
| 20260506012113 | 48 | 90 | 0.9 | 0.0 | 0.00 | 0.00 | 0.00 | 90 | 1054.9 |
| 20260506012000 | 48 | 90 | 0.0 | 0.0 | 0.00 | 0.00 | 0.00 | 90 | 1055.0 |
| 20260506011846 | 48 | 67 | 0.0 | 0.0 | 0.00 | 0.00 | 0.00 | 90 | 1054.9 |
| 20260506011725 | 48 | 67 | 2.6 | 0.0 | 0.00 | 0.00 | 0.00 | 90 | 1054.9 |
| 20260506011612 | 48 | 67 | 6.1 | 0.0 | 0.00 | 0.00 | 0.00 | 90 | 1055.0 |
| 20260506011458 | 48 | 67 | 0.0 | 0.0 | 0.00 | 0.00 | 0.00 | 90 | 1055.0 |
| 20260506011338 | 48 | 67 | 1.7 | 0.0 | 0.00 | 0.00 | 0.00 | 90 | 1054.9 |
| 20260506011225 | 48 | 67 | 4.3 | 0.0 | 0.00 | 0.00 | 0.00 | 90 | 1054.9 |
| 20260506011120 | 48 | 45 | 5.2 | 0.0 | 0.00 | 0.00 | 0.00 | 90 | 1054.8 |
| 20260506011007 | 48 | 22 | 5.2 | 0.0 | 0.00 | 0.00 | 0.00 | 90 | 1054.9 |
| 20260506010854 | 48 | 45 | 5.2 | 0.0 | 0.00 | 0.00 | 0.00 | 90 | 1054.9 |
| 20260506010748 | 48 | 45 | 7.0 | 0.0 | 0.00 | 0.00 | 0.00 | 90 | 1054.8 |
| 20260506010638 | 48 | 90 | 4.3 | 0.0 | 0.00 | 0.00 | 0.00 | 90 | 1054.9 |
| 20260506010532 | 48 | 45 | 5.2 | 0.0 | 0.00 | 0.00 | 0.00 | 90 | 1054.9 |
| 20260506010428 | 48 | 45 | 2.6 | 0.0 | 0.00 | 0.00 | 0.00 | 90 | 1054.9 |
| 20260506010320 | 48 | 45 | 0.0 | 0.0 | 0.00 | 0.00 | 0.00 | 90 | 1055.0 |
| 20260506005900 | 48 | 45 | 4.3 | 0.0 | 0.00 | 0.00 | 0.00 | 90 | 1054.9 |
| 20260506005747 | 48 | 67 | 7.0 | 0.0 | 0.00 | 0.00 | 0.00 | 90 | 1054.9 |
| 20260506005618 | 48 | 67 | 5.2 | 0.0 | 0.00 | 0.00 | 0.00 | 90 | 1055.0 |
| 20260506005505 | 48 | 22 | 4.3 | 0.0 | 0.00 | 0.00 | 0.00 | 90 | 1054.9 |
| 20260506005400 | 49 | 67 | 3.5 | 0.0 | 0.00 | 0.00 | 0.00 | 90 | 1054.9 |
| 20260506005254 | 49 | 45 | 3.5 | 0.0 | 0.00 | 0.00 | 0.00 | 90 | 1054.9 |
| 20260506005144 | 49 | 45 | 3.5 | 0.0 | 0.00 | 0.00 | 0.00 | 90 | 1054.9 |
| 20260506005028 | 49 | 45 | 4.3 | 0.0 | 0.00 | 0.00 | 0.00 | 90 | 1054.9 |
| 20260506004906 | 49 | 22 | 6.1 | 0.0 | 0.00 | 0.00 | 0.00 | 89 | 1054.9 |
| 20260506004746 | 49 | 45 | 4.3 | 0.0 | 0.00 | 0.00 | 0.00 | 89 | 1054.9 |
| 20260506004639 | 49 | 45 | 4.3 | 0.0 | 0.00 | 0.00 | 0.00 | 89 | 1055.0 |
| 20260506004459 | 49 | 45 | 2.6 | 0.0 | 0.00 | 0.00 | 0.00 | 89 | 1055.0 |
| 20260506004347 | 49 | 45 | 3.5 | 0.0 | 0.00 | 0.00 | 0.00 | 90 | 1054.9 |
| 20260506004240 | 49 | 45 | 5.2 | 0.0 | 0.00 | 0.00 | 0.00 | 90 | 1055.0 |
| 20260506004126 | 49 | 45 | 5.2 | 0.0 | 0.00 | 0.00 | 0.00 | 90 | 1055.0 |
| 20260506004019 | 49 | 45 | 5.2 | 0.0 | 0.00 | 0.00 | 0.00 | 90 | 1055.2 |
| 20260506003914 | 49 | 22 | 2.6 | 0.0 | 0.00 | 0.00 | 0.00 | 90 | 1055.1 |
| 20260506003801 | 49 | 45 | 4.3 | 0.0 | 0.00 | 0.00 | 0.00 | 89 | 1055.1 |
| 20260506003653 | 49 | 45 | 2.6 | 0.0 | 0.00 | 0.00 | 0.00 | 89 | 1055.2 |
| 20260506003538 | 49 | 45 | 2.6 | 0.0 | 0.00 | 0.00 | 0.00 | 89 | 1055.1 |
| 20260506003425 | 49 | 112 | 0.0 | 0.0 | 0.00 | 0.00 | 0.00 | 89 | 1055.2 |
| 20260506003319 | 49 | 45 | 3.5 | 0.0 | 0.00 | 0.00 | 0.00 | 89 | 1055.2 |
| 20260506003205 | 49 | 67 | 2.6 | 0.0 | 0.00 | 0.00 | 0.00 | 89 | 1055.2 |
| 20260506003058 | 49 | 67 | 4.3 | 0.0 | 0.00 | 0.00 | 0.00 | 89 | 1055.2 |
| 20260506002953 | 49 | 45 | 4.3 | 0.0 | 0.00 | 0.00 | 0.00 | 89 | 1055.2 |
| 20260506002847 | 49 | 90 | 0.0 | 0.0 | 0.00 | 0.00 | 0.00 | 89 | 1055.2 |
| 20260506002740 | 49 | 22 | 4.3 | 0.0 | 0.00 | 0.00 | 0.00 | 89 | 1055.2 |
| 20260506002634 | 49 | 90 | 4.3 | 0.0 | 0.00 | 0.00 | 0.00 | 89 | 1055.2 |
| 20260506002515 | 49 | 45 | 6.1 | 0.0 | 0.00 | 0.00 | 0.00 | 89 | 1055.2 |
| 20260506002409 | 50 | 45 | 2.6 | 0.0 | 0.00 | 0.00 | 0.00 | 89 | 1055.2 |
| 20260506002306 | 50 | 45 | 7.8 | 0.0 | 0.00 | 0.00 | 0.00 | 88 | 1055.2 |
| 20260506002155 | 50 | 45 | 6.1 | 0.0 | 0.00 | 0.00 | 0.00 | 88 | 1055.2 |
| 20260506002043 | 50 | 22 | 4.3 | 0.0 | 0.00 | 0.00 | 0.00 | 88 | 1055.2 |
| 20260506001936 | 50 | 22 | 5.2 | 0.0 | 0.00 | 0.00 | 0.00 | 88 | 1055.2 |
| 20260506001817 | 50 | 22 | 4.3 | 0.0 | 0.00 | 0.00 | 0.00 | 88 | 1055.2 |
| 20260506001655 | 50 | 22 | 7.0 | 0.0 | 0.00 | 0.00 | 0.00 | 88 | 1055.2 |
| 20260506001435 | 50 | 67 | 7.8 | 0.0 | 0.00 | 0.00 | 0.00 | 88 | 1055.2 |
| 20260506001329 | 50 | 22 | 3.5 | 0.0 | 0.00 | 0.00 | 0.00 | 88 | 1055.2 |
| 20260506001218 | 50 | 45 | 7.0 | 0.0 | 0.00 | 0.00 | 0.00 | 88 | 1055.2 |
| 20260506001112 | 50 | 22 | 5.2 | 0.0 | 0.00 | 0.00 | 0.00 | 88 | 1055.3 |
| 20260506000951 | 50 | 0 | 5.2 | 0.0 | 0.00 | 0.00 | 0.00 | 88 | 1055.4 |
| 20260506000836 | 50 | 22 | 8.7 | 0.0 | 0.00 | 0.00 | 0.00 | 88 | 1055.3 |
| 20260506000717 | 50 | 45 | 9.6 | 0.0 | 0.00 | 0.00 | 0.00 | 88 | 1055.3 |
| 20260506000610 | 50 | 45 | 9.6 | 0.0 | 0.00 | 0.00 | 0.00 | 88 | 1055.3 |
| 20260506000458 | 50 | 67 | 8.7 | 0.0 | 0.00 | 0.00 | 0.00 | 88 | 1055.2 |
| 20260506000350 | 50 | 45 | 8.7 | 0.0 | 0.00 | 0.00 | 0.00 | 88 | 1055.3 |
| 20260506000235 | 50 | 22 | 0.0 | 0.0 | 0.00 | 0.00 | 0.00 | 88 | 1055.4 |
| 20260506000115 | 50 | 67 | 0.0 | 0.0 | 0.00 | 0.00 | 0.00 | 88 | 1055.2 |
| 20260506000009 | 50 | 45 | 4.3 | 0.0 | 0.00 | 0.00 | 0.00 | 88 | 1055.2 |
| 20260505235855 | 50 | 67 | 6.1 | 0.0 | 0.00 | 0.00 | 0.00 | 87 | 1055.2 |
| 20260505235742 | 50 | 22 | 5.2 | 0.0 | 0.00 | 0.00 | 0.00 | 87 | 1055.2 |
| 20260505235629 | 50 | 22 | 8.7 | 0.0 | 0.00 | 0.00 | 0.00 | 87 | 1055.2 |
| 20260505235524 | 50 | 22 | 3.5 | 0.0 | 0.00 | 0.00 | 0.00 | 87 | 1055.2 |
| 20260505235413 | 50 | 45 | 6.1 | 0.0 | 0.00 | 0.00 | 0.00 | 87 | 1055.2 |
| 20260505235306 | 50 | 45 | 4.3 | 0.0 | 0.00 | 0.00 | 0.00 | 87 | 1055.2 |
| 20260505235153 | 50 | 45 | 9.6 | 0.0 | 0.00 | 0.00 | 0.00 | 87 | 1055.4 |
| 20260505235039 | 50 | 22 | 2.6 | 0.0 | 0.00 | 0.00 | 0.00 | 86 | 1055.3 |
| 20260505234926 | 50 | 45 | 9.6 | 0.0 | 0.00 | 0.00 | 0.00 | 86 | 1055.3 |
| 20260505234813 | 50 | 90 | 4.3 | 0.0 | 0.00 | 0.00 | 0.00 | 86 | 1055.3 |
| 20260505234700 | 50 | 45 | 7.0 | 0.0 | 0.00 | 0.00 | 0.00 | 86 | 1055.3 |
| 20260505234548 | 50 | 45 | 2.6 | 0.0 | 0.00 | 0.00 | 0.00 | 86 | 1055.4 |
| 20260505234434 | 50 | 22 | 2.6 | 0.0 | 0.00 | 0.00 | 0.00 | 86 | 1055.3 |
| 20260505234313 | 50 | 67 | 4.3 | 0.0 | 0.00 | 0.00 | 0.00 | 86 | 1055.4 |
| 20260505234200 | 50 | 45 | 2.6 | 0.0 | 0.00 | 0.00 | 0.00 | 86 | 1055.4 |
| 20260505234046 | 50 | 22 | 9.6 | 0.0 | 0.00 | 0.00 | 0.00 | 86 | 1055.4 |
| 20260505233936 | 50 | 22 | 4.3 | 0.0 | 0.00 | 0.00 | 0.00 | 86 | 1055.4 |
| 20260505233828 | 50 | 0 | 5.2 | 0.0 | 0.00 | 0.00 | 0.00 | 85 | 1055.4 |
| 20260505233707 | 50 | 45 | 5.2 | 0.0 | 0.00 | 0.00 | 0.00 | 85 | 1055.4 |
| 20260505233603 | 50 | 22 | 7.8 | 0.0 | 0.00 | 0.00 | 0.00 | 85 | 1055.4 |
| 20260505233457 | 50 | 22 | 5.2 | 0.0 | 0.00 | 0.00 | 0.00 | 85 | 1055.3 |
| 20260505233346 | 50 | 45 | 4.3 | 0.0 | 0.00 | 0.00 | 0.00 | 85 | 1055.4 |
| 20260505233239 | 50 | 45 | 0.0 | 0.0 | 0.00 | 0.00 | 0.00 | 85 | 1055.3 |
| 20260505233136 | 50 | 45 | 7.8 | 0.0 | 0.00 | 0.00 | 0.00 | 85 | 1055.3 |
| 20260505233028 | 50 | 45 | 5.2 | 0.0 | 0.00 | 0.00 | 0.00 | 85 | 1055.3 |
| 20260505232908 | 50 | 45 | 10.4 | 0.0 | 0.00 | 0.00 | 0.00 | 84 | 1055.4 |
| 20260505232756 | 50 | 45 | 3.5 | 0.0 | 0.00 | 0.00 | 0.00 | 84 | 1055.4 |
| 20260505232649 | 50 | 45 | 7.8 | 0.0 | 0.00 | 0.00 | 0.00 | 84 | 1055.4 |
| 20260505232543 | 50 | 45 | 14.8 | 0.0 | 0.00 | 0.00 | 0.00 | 84 | 1055.4 |
| 20260505232438 | 50 | 22 | 5.2 | 0.0 | 0.00 | 0.00 | 0.00 | 83 | 1055.4 |
| 20260505232331 | 50 | 45 | 3.5 | 0.0 | 0.00 | 0.00 | 0.00 | 83 | 1055.4 |
| 20260505232226 | 50 | 22 | 6.1 | 0.0 | 0.00 | 0.00 | 0.00 | 83 | 1055.4 |
| 20260505232120 | 50 | 22 | 6.1 | 0.0 | 0.00 | 0.00 | 0.00 | 83 | 1055.3 |
| 20260505231959 | 50 | 0 | 4.3 | 0.0 | 0.00 | 0.00 | 0.00 | 83 | 1055.4 |
| 20260505231839 | 50 | 67 | 1.7 | 0.0 | 0.00 | 0.00 | 0.00 | 83 | 1055.4 |
| 20260505231733 | 50 | 45 | 3.5 | 0.0 | 0.00 | 0.00 | 0.00 | 83 | 1055.4 |
| 20260505231612 | 50 | 45 | 4.3 | 0.0 | 0.00 | 0.00 | 0.00 | 82 | 1055.4 |
| 20260505231459 | 50 | 22 | 5.2 | 0.0 | 0.00 | 0.00 | 0.00 | 82 | 1055.4 |
| 20260505231346 | 50 | 45 | 5.2 | 0.0 | 0.00 | 0.00 | 0.00 | 82 | 1055.4 |
| 20260505231240 | 50 | 45 | 3.5 | 0.0 | 0.00 | 0.00 | 0.00 | 82 | 1055.4 |
| 20260505231135 | 50 | 0 | 4.3 | 0.0 | 0.00 | 0.00 | 0.00 | 82 | 1055.4 |
| 20260505231029 | 50 | 45 | 7.8 | 0.0 | 0.00 | 0.00 | 0.00 | 82 | 1055.5 |
| 20260505230924 | 50 | 45 | 9.6 | 0.0 | 0.00 | 0.00 | 0.00 | 82 | 1055.4 |
| 20260505230818 | 50 | 22 | 3.5 | 0.0 | 0.00 | 0.00 | 0.00 | 82 | 1055.5 |
| 20260505230705 | 50 | 45 | 1.7 | 0.0 | 0.00 | 0.00 | 0.00 | 82 | 1055.6 |
| 20260505230544 | 50 | 90 | 10.4 | 0.0 | 0.00 | 0.00 | 0.00 | 82 | 1055.5 |
| 20260505230431 | 50 | 22 | 5.2 | 0.0 | 0.00 | 0.00 | 0.00 | 82 | 1055.5 |
| 20260505230317 | 50 | 22 | 5.2 | 0.0 | 0.00 | 0.00 | 0.00 | 82 | 1055.5 |
| 20260505230204 | 50 | 0 | 7.8 | 0.0 | 0.00 | 0.00 | 0.00 | 82 | 1055.5 |
| 20260505230052 | 50 | 22 | 4.3 | 0.0 | 0.00 | 0.00 | 0.00 | 82 | 1055.6 |
| 20260505225946 | 50 | 45 | 0.0 | 0.0 | 0.00 | 0.00 | 0.00 | 82 | 1055.5 |
| 20260505225833 | 50 | 45 | 6.1 | 0.0 | 0.00 | 0.00 | 0.00 | 82 | 1055.6 |
| 20260505225727 | 50 | 0 | 6.1 | 0.0 | 0.00 | 0.00 | 0.00 | 82 | 1055.6 |
| 20260505225622 | 50 | 0 | 5.2 | 0.0 | 0.00 | 0.00 | 0.00 | 82 | 1055.6 |
| 20260505225516 | 50 | 22 | 5.2 | 0.0 | 0.00 | 0.00 | 0.00 | 82 | 1055.6 |
| 20260505225410 | 50 | 22 | 2.6 | 0.0 | 0.00 | 0.00 | 0.00 | 82 | 1055.6 |
| 20260505225250 | 50 | 45 | 10.4 | 0.0 | 0.00 | 0.00 | 0.00 | 82 | 1055.6 |
| 20260505225143 | 50 | 45 | 5.2 | 0.0 | 0.00 | 0.00 | 0.00 | 82 | 1055.6 |
| 20260505225030 | 50 | 45 | 4.3 | 0.0 | 0.00 | 0.00 | 0.00 | 82 | 1055.6 |
| 20260505224924 | 50 | 67 | 0.0 | 0.0 | 0.00 | 0.00 | 0.00 | 83 | 1055.6 |
| 20260505224810 | 50 | 45 | 5.2 | 0.0 | 0.00 | 0.00 | 0.00 | 83 | 1055.7 |
| 20260505224705 | 50 | 22 | 5.2 | 0.0 | 0.00 | 0.00 | 0.00 | 83 | 1055.6 |
| 20260505224559 | 50 | 67 | 8.7 | 0.0 | 0.00 | 0.00 | 0.00 | 83 | 1055.7 |
| 20260505224453 | 50 | 22 | 7.0 | 0.0 | 0.00 | 0.00 | 0.00 | 83 | 1055.7 |
| 20260505224333 | 50 | 67 | 8.7 | 0.0 | 0.00 | 0.00 | 0.00 | 83 | 1055.7 |
| 20260505224226 | 50 | 90 | 7.0 | 0.0 | 0.00 | 0.00 | 0.00 | 83 | 1055.7 |
| 20260505224112 | 50 | 22 | 2.6 | 0.0 | 0.00 | 0.00 | 0.00 | 83 | 1055.7 |
| 20260505223958 | 50 | 45 | 5.2 | 0.0 | 0.00 | 0.00 | 0.00 | 83 | 1055.8 |
| 20260505223853 | 50 | 45 | 3.5 | 0.0 | 0.00 | 0.00 | 0.00 | 83 | 1055.7 |
| 20260505223746 | 50 | 45 | 4.3 | 0.0 | 0.00 | 0.00 | 0.00 | 83 | 1055.8 |
| 20260505223641 | 50 | 45 | 5.2 | 0.0 | 0.00 | 0.00 | 0.00 | 83 | 1055.8 |
| 20260505223534 | 50 | 45 | 7.0 | 0.0 | 0.00 | 0.00 | 0.00 | 83 | 1055.7 |
| 20260505223428 | 50 | 67 | 5.2 | 0.0 | 0.00 | 0.00 | 0.00 | 83 | 1055.7 |
| 20260505223314 | 50 | 22 | 1.7 | 0.0 | 0.00 | 0.00 | 0.00 | 83 | 1055.8 |
| 20260505223200 | 50 | 22 | 7.8 | 0.0 | 0.00 | 0.00 | 0.00 | 83 | 1055.7 |
| 20260505223038 | 50 | 45 | 4.3 | 0.0 | 0.00 | 0.00 | 0.00 | 84 | 1055.8 |
| 20260505222923 | 50 | 45 | 3.5 | 0.0 | 0.00 | 0.00 | 0.00 | 84 | 1055.8 |
| 20260505222801 | 50 | 67 | 6.1 | 0.0 | 0.00 | 0.00 | 0.00 | 84 | 1055.7 |
| 20260505222657 | 50 | 0 | 5.2 | 0.0 | 0.00 | 0.00 | 0.00 | 84 | 1055.8 |
| 20260505222548 | 50 | 45 | 5.2 | 0.0 | 0.00 | 0.00 | 0.00 | 84 | 1055.7 |
| 20260505222435 | 50 | 45 | 3.5 | 0.0 | 0.00 | 0.00 | 0.00 | 84 | 1055.7 |
| 20260505222328 | 50 | 45 | 4.3 | 0.0 | 0.00 | 0.00 | 0.00 | 84 | 1055.7 |
| 20260505222223 | 50 | 45 | 2.6 | 0.0 | 0.00 | 0.00 | 0.00 | 84 | 1055.7 |
| 20260505222116 | 50 | 22 | 5.2 | 0.0 | 0.00 | 0.00 | 0.00 | 84 | 1055.7 |
| 20260505222011 | 50 | 0 | 5.2 | 0.0 | 0.00 | 0.00 | 0.00 | 84 | 1055.7 |
| 20260505221904 | 50 | 22 | 4.3 | 0.0 | 0.00 | 0.00 | 0.00 | 84 | 1055.8 |
| 20260505221759 | 50 | 90 | 4.3 | 0.0 | 0.00 | 0.00 | 0.00 | 84 | 1055.7 |
| 20260505221654 | 50 | 90 | 7.8 | 0.0 | 0.00 | 0.00 | 0.00 | 84 | 1055.8 |
| 20260505221548 | 50 | 45 | 1.7 | 0.0 | 0.00 | 0.00 | 0.00 | 84 | 1055.8 |
| 20260505221435 | 50 | 45 | 3.5 | 0.0 | 0.00 | 0.00 | 0.00 | 84 | 1055.7 |
| 20260505221323 | 50 | 45 | 7.8 | 0.0 | 0.00 | 0.00 | 0.00 | 84 | 1055.7 |
| 20260505221219 | 50 | 45 | 5.2 | 0.0 | 0.00 | 0.00 | 0.00 | 85 | 1055.7 |
| 20260505221104 | 50 | 45 | 11.3 | 0.0 | 0.00 | 0.00 | 0.00 | 85 | 1055.7 |
| 20260505220951 | 50 | 45 | 15.6 | 0.0 | 0.00 | 0.00 | 0.00 | 85 | 1055.7 |
| 20260505220838 | 50 | 112 | 5.2 | 0.0 | 0.00 | 0.00 | 0.00 | 85 | 1055.7 |
| 20260505220716 | 50 | 22 | 5.2 | 0.0 | 0.00 | 0.00 | 0.00 | 85 | 1055.7 |
| 20260505220605 | 50 | 337 | 5.2 | 0.0 | 0.00 | 0.00 | 0.00 | 85 | 1055.7 |
| 20260505220458 | 50 | 22 | 5.2 | 0.0 | 0.00 | 0.00 | 0.00 | 85 | 1055.8 |
| 20260505220329 | 50 | 22 | 7.8 | 0.0 | 0.00 | 0.00 | 0.00 | 85 | 1055.8 |
| 20260505220216 | 50 | 22 | 5.2 | 0.0 | 0.00 | 0.00 | 0.00 | 85 | 1055.8 |
| 20260505220110 | 50 | 22 | 5.2 | 0.0 | 0.00 | 0.00 | 0.00 | 85 | 1055.8 |
| 20260505215941 | 50 | 67 | 9.6 | 0.0 | 0.00 | 0.00 | 0.00 | 85 | 1055.8 |
| 20260505215828 | 50 | 67 | 7.0 | 0.0 | 0.00 | 0.00 | 0.00 | 85 | 1055.8 |
| 20260505215723 | 50 | 45 | 4.3 | 0.0 | 0.00 | 0.00 | 0.00 | 85 | 1055.8 |
| 20260505215554 | 50 | 45 | 3.5 | 0.0 | 0.00 | 0.00 | 0.00 | 85 | 1055.8 |
| 20260505215441 | 50 | 45 | 3.5 | 0.0 | 0.00 | 0.00 | 0.00 | 85 | 1055.9 |
| 20260505215336 | 50 | 22 | 5.2 | 0.0 | 0.00 | 0.00 | 0.00 | 85 | 1055.9 |
| 20260505215224 | 50 | 0 | 11.3 | 0.0 | 0.00 | 0.00 | 0.00 | 85 | 1055.9 |
| 20260505215119 | 50 | 67 | 4.3 | 0.0 | 0.00 | 0.00 | 0.00 | 85 | 1055.8 |
| 20260505215013 | 50 | 22 | 6.1 | 0.0 | 0.00 | 0.00 | 0.00 | 85 | 1055.9 |
| 20260505214909 | 50 | 22 | 2.6 | 0.0 | 0.00 | 0.00 | 0.00 | 85 | 1055.9 |
| 20260505214803 | 50 | 45 | 4.3 | 0.0 | 0.00 | 0.00 | 0.00 | 85 | 1055.9 |
| 20260505214657 | 50 | 22 | 0.0 | 0.0 | 0.00 | 0.00 | 0.00 | 85 | 1056.0 |
| 20260505214545 | 50 | 22 | 7.8 | 0.0 | 0.00 | 0.00 | 0.00 | 85 | 1055.9 |
| 20260505214434 | 50 | 22 | 5.2 | 0.0 | 0.00 | 0.00 | 0.00 | 84 | 1056.0 |
| 20260505214326 | 50 | 45 | 3.5 | 0.0 | 0.00 | 0.00 | 0.00 | 84 | 1056.0 |
| 20260505214001 | 50 | 45 | 4.3 | 0.0 | 0.00 | 0.00 | 0.00 | 84 | 1056.0 |
| 20260505213851 | 50 | 45 | 1.7 | 0.0 | 0.00 | 0.00 | 0.00 | 84 | 1055.9 |
| 20260505213635 | 50 | 22 | 5.2 | 0.0 | 0.00 | 0.00 | 0.00 | 84 | 1056.0 |
| 20260505213521 | 50 | 45 | 7.0 | 0.0 | 0.00 | 0.00 | 0.00 | 84 | 1056.0 |
| 20260505213408 | 50 | 45 | 5.2 | 0.0 | 0.00 | 0.00 | 0.00 | 84 | 1056.0 |
| 20260505213254 | 50 | 67 | 8.7 | 0.0 | 0.00 | 0.00 | 0.00 | 84 | 1056.0 |
| 20260505213141 | 50 | 45 | 3.5 | 0.0 | 0.00 | 0.00 | 0.00 | 85 | 1056.0 |